Wetterdaten: aktuell Montag, 16.12.2019 07:20
Datum Zeit Temp. A. Feuchte A. Luftdruck Regen Sonnenschein Regendauer ET UV Solar Taupunkt Windchill Windben Empfang
16.12.2019 07:20 8,3 C 91 % 1005,1 hPa 0,0 l/m 0 min 0 min 0,000 mm 0,0 UV-I 0 W/m 6,9 C 7,9 C 11,3 km/h (2 Bft) 98 %
16.12.2019 07:18 8,3 C 91 % 1005,1 hPa 0,0 l/m 0 min 0 min 0,000 mm 0,0 UV-I 0 W/m 6,9 C 8,3 C 9,7 km/h (2 Bft) 92 %
16.12.2019 07:16 8,3 C 91 % 1005,2 hPa 0,0 l/m 0 min 0 min 0,000 mm 0,0 UV-I 0 W/m 6,9 C 8,3 C 6,4 km/h (2 Bft) 96 %
16.12.2019 07:14 8,3 C 91 % 1005,1 hPa 0,0 l/m 0 min 0 min 0,000 mm 0,0 UV-I 0 W/m 6,9 C 8,3 C 8,0 km/h (2 Bft) 98 %
16.12.2019 07:12 8,4 C 91 % 1005,2 hPa 0,0 l/m 0 min 0 min 0,000 mm 0,0 UV-I 0 W/m 7,0 C 8,4 C 6,4 km/h (2 Bft) 93 %
16.12.2019 07:10 8,4 C 91 % 1005,1 hPa 0,0 l/m 0 min 0 min 0,000 mm 0,0 UV-I 0 W/m 7,0 C 8,4 C 6,4 km/h (2 Bft) 97 %
16.12.2019 07:08 8,4 C 91 % 1005,1 hPa 0,0 l/m 0 min 0 min 0,000 mm 0,0 UV-I 0 W/m 7,0 C 8,4 C 8,0 km/h (2 Bft) 98 %
16.12.2019 07:06 8,4 C 91 % 1005,0 hPa 0,0 l/m 0 min 0 min 0,000 mm 0,0 UV-I 0 W/m 7,0 C 8,4 C 8,0 km/h (2 Bft) 98 %
16.12.2019 07:04 8,4 C 91 % 1005,0 hPa 0,0 l/m 0 min 0 min 0,025 mm 0,0 UV-I 0 W/m 7,0 C 8,4 C 11,3 km/h (2 Bft) 98 %
16.12.2019 07:00 8,4 C 91 % 1005,0 hPa 0,0 l/m 0 min 0 min 0,000 mm 0,0 UV-I 0 W/m 7,0 C 8,4 C 8,0 km/h (2 Bft) 98 %
16.12.2019 06:58 8,4 C 91 % 1005,0 hPa 0,0 l/m 0 min 0 min 0,000 mm 0,0 UV-I 0 W/m 7,0 C 8,4 C 8,0 km/h (2 Bft) 98 %
16.12.2019 06:56 8,4 C 90 % 1005,0 hPa 0,0 l/m 0 min 0 min 0,000 mm 0,0 UV-I 0 W/m 6,9 C 8,4 C 8,0 km/h (2 Bft) 100 %
16.12.2019 06:54 8,4 C 90 % 1004,9 hPa 0,0 l/m 0 min 0 min 0,000 mm 0,0 UV-I 0 W/m 6,9 C 8,4 C 6,4 km/h (2 Bft) 94 %
16.12.2019 06:52 8,4 C 90 % 1004,8 hPa 0,0 l/m 0 min 0 min 0,000 mm 0,0 UV-I 0 W/m 6,9 C 8,4 C 8,0 km/h (2 Bft) 91 %
16.12.2019 06:50 8,5 C 90 % 1004,7 hPa 0,0 l/m 0 min 0 min 0,000 mm 0,0 UV-I 0 W/m 7,0 C 8,5 C 8,0 km/h (2 Bft) 96 %
16.12.2019 06:48 8,5 C 90 % 1004,7 hPa 0,0 l/m 0 min 0 min 0,000 mm 0,0 UV-I 0 W/m 7,0 C 8,5 C 8,0 km/h (2 Bft) 98 %
16.12.2019 06:46 8,5 C 90 % 1004,7 hPa 0,0 l/m 0 min 0 min 0,000 mm 0,0 UV-I 0 W/m 7,0 C 7,6 C 11,3 km/h (2 Bft) 97 %
16.12.2019 06:44 8,5 C 90 % 1004,7 hPa 0,0 l/m 0 min 0 min 0,000 mm 0,0 UV-I 0 W/m 7,0 C 8,5 C 8,0 km/h (2 Bft) 96 %
16.12.2019 06:42 8,5 C 90 % 1004,7 hPa 0,0 l/m 0 min 0 min 0,000 mm 0,0 UV-I 0 W/m 7,0 C 8,4 C 9,7 km/h (2 Bft) 98 %
16.12.2019 06:40 8,5 C 90 % 1004,7 hPa 0,0 l/m 0 min 0 min 0,000 mm 0,0 UV-I 0 W/m 7,0 C 8,5 C 6,4 km/h (2 Bft) 100 %
16.12.2019 06:38 8,6 C 90 % 1004,8 hPa 0,0 l/m 0 min 0 min 0,000 mm 0,0 UV-I 0 W/m 7,1 C 8,6 C 8,0 km/h (2 Bft) 98 %
16.12.2019 06:36 8,6 C 90 % 1004,7 hPa 0,0 l/m 0 min 0 min 0,000 mm 0,0 UV-I 0 W/m 7,1 C 8,6 C 8,0 km/h (2 Bft) 98 %
16.12.2019 06:34 8,6 C 90 % 1004,7 hPa 0,0 l/m 0 min 0 min 0,000 mm 0,0 UV-I 0 W/m 7,1 C 8,5 C 9,7 km/h (2 Bft) 100 %
16.12.2019 06:32 8,6 C 90 % 1004,9 hPa 0,0 l/m 0 min 0 min 0,000 mm 0,0 UV-I 0 W/m 7,1 C 8,5 C 11,3 km/h (2 Bft) 100 %
16.12.2019 06:30 8,6 C 90 % 1004,9 hPa 0,0 l/m 0 min 0 min 0,000 mm 0,0 UV-I 0 W/m 7,1 C 7,8 C 9,7 km/h (2 Bft) 98 %
16.12.2019 06:28 8,6 C 90 % 1004,9 hPa 0,0 l/m 0 min 0 min 0,000 mm 0,0 UV-I 0 W/m 7,1 C 8,3 C 11,3 km/h (2 Bft) 100 %
16.12.2019 06:26 8,6 C 89 % 1004,9 hPa 0,0 l/m 0 min 0 min 0,000 mm 0,0 UV-I 0 W/m 6,9 C 8,6 C 9,7 km/h (2 Bft) 100 %
16.12.2019 06:24 8,7 C 89 % 1004,9 hPa 0,0 l/m 0 min 0 min 0,000 mm 0,0 UV-I 0 W/m 7,0 C 8,7 C 9,7 km/h (2 Bft) 100 %
16.12.2019 06:20 8,7 C 89 % 1004,9 hPa 0,0 l/m 0 min 0 min 0,000 mm 0,0 UV-I 0 W/m 7,0 C 8,7 C 8,0 km/h (2 Bft) 100 %
16.12.2019 06:18 8,7 C 89 % 1004,9 hPa 0,0 l/m 0 min 0 min 0,000 mm 0,0 UV-I 0 W/m 7,0 C 8,7 C 6,4 km/h (2 Bft) 98 %
16.12.2019 06:16 8,7 C 89 % 1004,9 hPa 0,0 l/m 0 min 0 min 0,000 mm 0,0 UV-I 0 W/m 7,0 C 7,7 C 14,5 km/h (3 Bft) 100 %
16.12.2019 06:14 8,7 C 89 % 1004,8 hPa 0,0 l/m 0 min 0 min 0,000 mm 0,0 UV-I 0 W/m 7,0 C 6,7 C 11,3 km/h (2 Bft) 95 %
16.12.2019 06:12 8,7 C 89 % 1004,8 hPa 0,0 l/m 0 min 0 min 0,000 mm 0,0 UV-I 0 W/m 7,0 C 6,3 C 14,5 km/h (3 Bft) 96 %
16.12.2019 06:10 8,6 C 89 % 1004,8 hPa 0,0 l/m 0 min 0 min 0,000 mm 0,0 UV-I 0 W/m 6,9 C 7,4 C 11,3 km/h (2 Bft) 98 %
16.12.2019 06:08 8,7 C 89 % 1004,9 hPa 0,0 l/m 0 min 0 min 0,000 mm 0,0 UV-I 0 W/m 7,0 C 7,5 C 11,3 km/h (2 Bft) 96 %
16.12.2019 06:06 8,7 C 89 % 1005,0 hPa 0,0 l/m 0 min 0 min 0,000 mm 0,0 UV-I 0 W/m 7,0 C 6,4 C 14,5 km/h (3 Bft) 98 %
16.12.2019 06:04 8,7 C 89 % 1005,0 hPa 0,0 l/m 0 min 0 min 0,025 mm 0,0 UV-I 0 W/m 7,0 C 6,9 C 12,9 km/h (3 Bft) 97 %
16.12.2019 06:00 8,7 C 89 % 1005,1 hPa 0,0 l/m 0 min 0 min 0,000 mm 0,0 UV-I 0 W/m 7,0 C 6,3 C 12,9 km/h (3 Bft) 97 %
16.12.2019 05:58 8,7 C 89 % 1005,0 hPa 0,0 l/m 0 min 0 min 0,000 mm 0,0 UV-I 0 W/m 7,0 C 5,7 C 14,5 km/h (3 Bft) 98 %
16.12.2019 05:56 8,7 C 89 % 1005,0 hPa 0,0 l/m 0 min 0 min 0,000 mm 0,0 UV-I 0 W/m 7,0 C 6,1 C 14,5 km/h (3 Bft) 91 %
16.12.2019 05:54 8,7 C 89 % 1004,8 hPa 0,0 l/m 0 min 0 min 0,000 mm 0,0 UV-I 0 W/m 7,0 C 5,5 C 14,5 km/h (3 Bft) 96 %
16.12.2019 05:52 8,7 C 89 % 1005,0 hPa 0,0 l/m 0 min 0 min 0,000 mm 0,0 UV-I 0 W/m 7,0 C 5,7 C 14,5 km/h (3 Bft) 95 %
16.12.2019 05:50 8,7 C 89 % 1005,0 hPa 0,0 l/m 0 min 0 min 0,000 mm 0,0 UV-I 0 W/m 7,0 C 6,6 C 14,5 km/h (3 Bft) 96 %
16.12.2019 05:48 8,7 C 89 % 1005,1 hPa 0,0 l/m 0 min 0 min 0,000 mm 0,0 UV-I 0 W/m 7,0 C 8,2 C 14,5 km/h (3 Bft) 98 %
16.12.2019 05:46 8,7 C 89 % 1005,2 hPa 0,0 l/m 0 min 0 min 0,000 mm 0,0 UV-I 0 W/m 7,0 C 5,8 C 16,1 km/h (3 Bft) 98 %
16.12.2019 05:44 8,6 C 89 % 1005,2 hPa 0,0 l/m 0 min 0 min 0,000 mm 0,0 UV-I 0 W/m 6,9 C 7,6 C 11,3 km/h (2 Bft) 94 %
16.12.2019 05:42 8,6 C 89 % 1005,2 hPa 0,0 l/m 0 min 0 min 0,000 mm 0,0 UV-I 0 W/m 6,9 C 6,8 C 12,9 km/h (3 Bft) 94 %
16.12.2019 05:40 8,5 C 89 % 1005,2 hPa 0,0 l/m 0 min 0 min 0,000 mm 0,0 UV-I 0 W/m 6,8 C 6,5 C 14,5 km/h (3 Bft) 97 %
16.12.2019 05:38 8,5 C 89 % 1005,1 hPa 0,0 l/m 0 min 0 min 0,000 mm 0,0 UV-I 0 W/m 6,8 C 6,0 C 16,1 km/h (3 Bft) 92 %
16.12.2019 05:36 8,4 C 89 % 1005,0 hPa 0,0 l/m 0 min 0 min 0,000 mm 0,0 UV-I 0 W/m 6,7 C 6,1 C 12,9 km/h (3 Bft) 94 %
16.12.2019 05:34 8,4 C 89 % 1005,0 hPa 0,0 l/m 0 min 0 min 0,000 mm 0,0 UV-I 0 W/m 6,7 C 7,5 C 9,7 km/h (2 Bft) 96 %
16.12.2019 05:32 8,4 C 89 % 1005,1 hPa 0,0 l/m 0 min 0 min 0,000 mm 0,0 UV-I 0 W/m 6,7 C 7,9 C 11,3 km/h (2 Bft) 98 %
16.12.2019 05:30 8,4 C 89 % 1005,2 hPa 0,0 l/m 0 min 0 min 0,000 mm 0,0 UV-I 0 W/m 6,7 C 8,1 C 9,7 km/h (2 Bft) 96 %
16.12.2019 05:28 8,4 C 88 % 1005,3 hPa 0,0 l/m 0 min 0 min 0,000 mm 0,0 UV-I 0 W/m 6,5 C 8,4 C 8,0 km/h (2 Bft) 94 %
16.12.2019 05:26 8,4 C 88 % 1005,3 hPa 0,0 l/m 0 min 0 min 0,000 mm 0,0 UV-I 0 W/m 6,5 C 8,4 C 4,8 km/h (1 Bft) 97 %
16.12.2019 05:24 8,4 C 89 % 1005,2 hPa 0,0 l/m 0 min 0 min 0,000 mm 0,0 UV-I 0 W/m 6,7 C 8,4 C 4,8 km/h (1 Bft) 96 %
16.12.2019 05:22 8,4 C 89 % 1005,4 hPa 0,0 l/m 0 min 0 min 0,000 mm 0,0 UV-I 0 W/m 6,7 C 8,4 C 8,0 km/h (2 Bft) 100 %
16.12.2019 05:20 8,4 C 88 % 1005,2 hPa 0,0 l/m 0 min 0 min 0,000 mm 0,0 UV-I 0 W/m 6,5 C 8,4 C 6,4 km/h (2 Bft) 98 %
16.12.2019 05:18 8,5 C 88 % 1005,1 hPa 0,0 l/m 0 min 0 min 0,000 mm 0,0 UV-I 0 W/m 6,6 C 8,5 C 6,4 km/h (2 Bft) 100 %
16.12.2019 05:16 8,5 C 88 % 1005,2 hPa 0,0 l/m 0 min 0 min 0,000 mm 0,0 UV-I 0 W/m 6,6 C 8,5 C 8,0 km/h (2 Bft) 98 %
16.12.2019 05:14 8,5 C 88 % 1005,2 hPa 0,0 l/m 0 min 0 min 0,000 mm 0,0 UV-I 0 W/m 6,6 C 8,5 C 9,7 km/h (2 Bft) 98 %
16.12.2019 05:12 8,6 C 89 % 1005,2 hPa 0,0 l/m 0 min 0 min 0,000 mm 0,0 UV-I 0 W/m 6,9 C 8,6 C 8,0 km/h (2 Bft) 94 %
16.12.2019 05:10 8,5 C 89 % 1005,2 hPa 0,0 l/m 0 min 0 min 0,000 mm 0,0 UV-I 0 W/m 6,8 C 8,3 C 9,7 km/h (2 Bft) 100 %
16.12.2019 05:08 8,5 C 89 % 1005,2 hPa 0,0 l/m 0 min 0 min 0,000 mm 0,0 UV-I 0 W/m 6,8 C 8,5 C 8,0 km/h (2 Bft) 100 %
16.12.2019 05:06 8,5 C 88 % 1005,2 hPa 0,0 l/m 0 min 0 min 0,000 mm 0,0 UV-I 0 W/m 6,6 C 8,5 C 8,0 km/h (2 Bft) 100 %
16.12.2019 05:04 8,5 C 88 % 1005,2 hPa 0,0 l/m 0 min 0 min 0,026 mm 0,0 UV-I 0 W/m 6,6 C 8,5 C 12,9 km/h (3 Bft) 99 %
16.12.2019 05:00 8,6 C 88 % 1005,1 hPa 0,0 l/m 0 min 0 min 0,000 mm 0,0 UV-I 0 W/m 6,7 C 8,6 C 8,0 km/h (2 Bft) 100 %
16.12.2019 04:58 8,6 C 88 % 1005,1 hPa 0,0 l/m 0 min 0 min 0,000 mm 0,0 UV-I 0 W/m 6,7 C 8,0 C 9,7 km/h (2 Bft) 98 %
16.12.2019 04:56 8,7 C 88 % 1005,2 hPa 0,0 l/m 0 min 0 min 0,000 mm 0,0 UV-I 0 W/m 6,8 C 8,4 C 9,7 km/h (2 Bft) 98 %
16.12.2019 04:54 8,7 C 88 % 1005,2 hPa 0,0 l/m 0 min 0 min 0,000 mm 0,0 UV-I 0 W/m 6,8 C 6,5 C 12,9 km/h (3 Bft) 98 %
16.12.2019 04:52 8,7 C 88 % 1005,3 hPa 0,0 l/m 0 min 0 min 0,000 mm 0,0 UV-I 0 W/m 6,8 C 7,5 C 11,3 km/h (2 Bft) 100 %
16.12.2019 04:50 8,7 C 88 % 1005,4 hPa 0,0 l/m 0 min 0 min 0,000 mm 0,0 UV-I 0 W/m 6,8 C 8,6 C 11,3 km/h (2 Bft) 98 %
16.12.2019 04:48 8,7 C 89 % 1005,4 hPa 0,0 l/m 0 min 0 min 0,000 mm 0,0 UV-I 0 W/m 7,0 C 7,6 C 11,3 km/h (2 Bft) 98 %
16.12.2019 04:46 8,7 C 89 % 1005,4 hPa 0,0 l/m 0 min 0 min 0,000 mm 0,0 UV-I 0 W/m 7,0 C 7,5 C 14,5 km/h (3 Bft) 100 %
16.12.2019 04:44 8,6 C 89 % 1005,2 hPa 0,0 l/m 0 min 0 min 0,000 mm 0,0 UV-I 0 W/m 6,9 C 6,5 C 17,7 km/h (3 Bft) 96 %
16.12.2019 04:42 8,6 C 89 % 1005,3 hPa 0,0 l/m 0 min 0 min 0,000 mm 0,0 UV-I 0 W/m 6,9 C 8,6 C 8,0 km/h (2 Bft) 94 %
16.12.2019 04:40 8,6 C 89 % 1005,3 hPa 0,0 l/m 0 min 0 min 0,000 mm 0,0 UV-I 0 W/m 6,9 C 7,7 C 11,3 km/h (2 Bft) 98 %
16.12.2019 04:38 8,5 C 89 % 1005,3 hPa 0,0 l/m 0 min 0 min 0,000 mm 0,0 UV-I 0 W/m 6,8 C 7,2 C 12,9 km/h (3 Bft) 97 %
16.12.2019 04:36 8,5 C 89 % 1005,2 hPa 0,0 l/m 0 min 0 min 0,000 mm 0,0 UV-I 0 W/m 6,8 C 7,1 C 14,5 km/h (3 Bft) 100 %
16.12.2019 04:34 8,4 C 89 % 1005,3 hPa 0,0 l/m 0 min 0 min 0,000 mm 0,0 UV-I 0 W/m 6,7 C 8,4 C 4,8 km/h (1 Bft) 98 %
16.12.2019 04:32 8,5 C 89 % 1005,4 hPa 0,0 l/m 0 min 0 min 0,000 mm 0,0 UV-I 0 W/m 6,8 C 8,5 C 9,7 km/h (2 Bft) 94 %
16.12.2019 04:30 8,4 C 89 % 1005,5 hPa 0,0 l/m 0 min 0 min 0,000 mm 0,0 UV-I 0 W/m 6,7 C 8,4 C 12,9 km/h (3 Bft) 98 %
16.12.2019 04:28 8,4 C 89 % 1005,5 hPa 0,0 l/m 0 min 0 min 0,000 mm 0,0 UV-I 0 W/m 6,7 C 8,4 C 9,7 km/h (2 Bft) 96 %
16.12.2019 04:26 8,4 C 89 % 1005,5 hPa 0,0 l/m 0 min 0 min 0,000 mm 0,0 UV-I 0 W/m 6,7 C 8,4 C 8,0 km/h (2 Bft) 100 %
16.12.2019 04:24 8,4 C 89 % 1005,4 hPa 0,0 l/m 0 min 0 min 0,000 mm 0,0 UV-I 0 W/m 6,7 C 8,4 C 11,3 km/h (2 Bft) 98 %
16.12.2019 04:22 8,4 C 89 % 1005,4 hPa 0,0 l/m 0 min 0 min 0,000 mm 0,0 UV-I 0 W/m 6,7 C 8,4 C 8,0 km/h (2 Bft) 96 %
16.12.2019 04:20 8,4 C 89 % 1005,3 hPa 0,0 l/m 0 min 0 min 0,000 mm 0,0 UV-I 0 W/m 6,7 C 8,4 C 6,4 km/h (2 Bft) 93 %
16.12.2019 04:18 8,3 C 89 % 1005,3 hPa 0,0 l/m 0 min 0 min 0,000 mm 0,0 UV-I 0 W/m 6,6 C 6,9 C 14,5 km/h (3 Bft) 94 %
16.12.2019 04:16 8,3 C 89 % 1005,2 hPa 0,0 l/m 0 min 0 min 0,000 mm 0,0 UV-I 0 W/m 6,6 C 7,8 C 14,5 km/h (3 Bft) 92 %
16.12.2019 04:14 8,3 C 89 % 1005,2 hPa 0,0 l/m 0 min 0 min 0,000 mm 0,0 UV-I 0 W/m 6,6 C 8,3 C 12,9 km/h (3 Bft) 94 %
16.12.2019 04:12 8,3 C 89 % 1005,2 hPa 0,0 l/m 0 min 0 min 0,000 mm 0,0 UV-I 0 W/m 6,6 C 8,3 C 9,7 km/h (2 Bft) 91 %
16.12.2019 04:10 8,3 C 89 % 1005,3 hPa 0,0 l/m 0 min 0 min 0,000 mm 0,0 UV-I 0 W/m 6,6 C 8,3 C 9,7 km/h (2 Bft) 94 %
16.12.2019 04:08 8,3 C 89 % 1005,4 hPa 0,0 l/m 0 min 0 min 0,000 mm 0,0 UV-I 0 W/m 6,6 C 8,3 C 6,4 km/h (2 Bft) 93 %
16.12.2019 04:06 8,3 C 89 % 1005,5 hPa 0,0 l/m 0 min 0 min 0,000 mm 0,0 UV-I 0 W/m 6,6 C 8,3 C 8,0 km/h (2 Bft) 90 %
16.12.2019 04:04 8,3 C 89 % 1005,5 hPa 0,0 l/m 0 min 0 min 0,025 mm 0,0 UV-I 0 W/m 6,6 C 8,2 C 11,3 km/h (2 Bft) 93 %
16.12.2019 04:00 8,2 C 89 % 1005,3 hPa 0,0 l/m 0 min 0 min 0,000 mm 0,0 UV-I 0 W/m 6,5 C 7,0 C 11,3 km/h (2 Bft) 94 %
16.12.2019 03:58 8,2 C 89 % 1005,3 hPa 0,0 l/m 0 min 0 min 0,000 mm 0,0 UV-I 0 W/m 6,5 C 8,2 C 8,0 km/h (2 Bft) 95 %
16.12.2019 03:56 8,2 C 89 % 1005,3 hPa 0,0 l/m 0 min 0 min 0,000 mm 0,0 UV-I 0 W/m 6,5 C 7,3 C 11,3 km/h (2 Bft) 94 %
16.12.2019 03:54 8,2 C 89 % 1005,2 hPa 0,0 l/m 0 min 0 min 0,000 mm 0,0 UV-I 0 W/m 6,5 C 7,6 C 11,3 km/h (2 Bft) 96 %
16.12.2019 03:52 8,2 C 89 % 1005,2 hPa 0,0 l/m 0 min 0 min 0,000 mm 0,0 UV-I 0 W/m 6,5 C 6,0 C 14,5 km/h (3 Bft) 96 %
16.12.2019 03:50 8,2 C 89 % 1005,2 hPa 0,0 l/m 0 min 0 min 0,000 mm 0,0 UV-I 0 W/m 6,5 C 8,2 C 9,7 km/h (2 Bft) 95 %
16.12.2019 03:48 8,2 C 89 % 1005,2 hPa 0,0 l/m 0 min 0 min 0,000 mm 0,0 UV-I 0 W/m 6,5 C 4,4 C 17,7 km/h (3 Bft) 96 %
16.12.2019 03:46 8,1 C 89 % 1005,2 hPa 0,0 l/m 0 min 0 min 0,000 mm 0,0 UV-I 0 W/m 6,4 C 6,9 C 12,9 km/h (3 Bft) 98 %
16.12.2019 03:44 8,1 C 89 % 1005,3 hPa 0,0 l/m 0 min 0 min 0,000 mm 0,0 UV-I 0 W/m 6,4 C 8,1 C 9,7 km/h (2 Bft) 96 %
16.12.2019 03:42 8,1 C 89 % 1005,2 hPa 0,0 l/m 0 min 0 min 0,000 mm 0,0 UV-I 0 W/m 6,4 C 6,9 C 11,3 km/h (2 Bft) 95 %
16.12.2019 03:40 8,1 C 89 % 1005,2 hPa 0,0 l/m 0 min 0 min 0,000 mm 0,0 UV-I 0 W/m 6,4 C 6,6 C 14,5 km/h (3 Bft) 98 %
16.12.2019 03:38 8,1 C 89 % 1005,2 hPa 0,0 l/m 0 min 0 min 0,000 mm 0,0 UV-I 0 W/m 6,4 C 4,7 C 20,9 km/h (4 Bft) 96 %
16.12.2019 03:36 8,0 C 89 % 1005,1 hPa 0,0 l/m 0 min 0 min 0,000 mm 0,0 UV-I 0 W/m 6,3 C 5,4 C 17,7 km/h (3 Bft) 98 %
16.12.2019 03:34 8,1 C 89 % 1005,1 hPa 0,0 l/m 0 min 2 min 0,000 mm 0,0 UV-I 0 W/m 6,4 C 6,4 C 19,3 km/h (3 Bft) 98 %
16.12.2019 03:32 8,1 C 89 % 1005,3 hPa 0,0 l/m 0 min 0 min 0,000 mm 0,0 UV-I 0 W/m 6,4 C 7,7 C 11,3 km/h (2 Bft) 96 %
16.12.2019 03:30 8,1 C 89 % 1005,3 hPa 0,0 l/m 0 min 0 min 0,000 mm 0,0 UV-I 0 W/m 6,4 C 8,1 C 8,0 km/h (2 Bft) 98 %
16.12.2019 03:28 8,1 C 89 % 1005,3 hPa 0,0 l/m 0 min 0 min 0,000 mm 0,0 UV-I 0 W/m 6,4 C 7,1 C 12,9 km/h (3 Bft) 98 %
16.12.2019 03:26 8,0 C 89 % 1005,5 hPa 0,0 l/m 0 min 0 min 0,000 mm 0,0 UV-I 0 W/m 6,3 C 8,0 C 9,7 km/h (2 Bft) 96 %
16.12.2019 03:24 7,9 C 89 % 1005,6 hPa 0,0 l/m 0 min 0 min 0,000 mm 0,0 UV-I 0 W/m 6,2 C 6,2 C 14,5 km/h (3 Bft) 93 %
16.12.2019 03:22 7,9 C 89 % 1005,4 hPa 0,0 l/m 0 min 0 min 0,000 mm 0,0 UV-I 0 W/m 6,2 C 7,9 C 12,9 km/h (3 Bft) 98 %
16.12.2019 03:20 7,9 C 89 % 1005,2 hPa 0,0 l/m 0 min 0 min 0,000 mm 0,0 UV-I 0 W/m 6,2 C 5,9 C 14,5 km/h (3 Bft) 98 %
16.12.2019 03:18 7,9 C 89 % 1005,2 hPa 0,0 l/m 0 min 0 min 0,000 mm 0,0 UV-I 0 W/m 6,2 C 6,6 C 12,9 km/h (3 Bft) 96 %
16.12.2019 03:16 7,9 C 89 % 1005,4 hPa 0,0 l/m 0 min 0 min 0,000 mm 0,0 UV-I 0 W/m 6,2 C 7,3 C 12,9 km/h (3 Bft) 94 %
16.12.2019 03:14 7,9 C 89 % 1005,7 hPa 0,0 l/m 0 min 0 min 0,000 mm 0,0 UV-I 0 W/m 6,2 C 7,6 C 11,3 km/h (2 Bft) 98 %
16.12.2019 03:12 7,8 C 89 % 1005,4 hPa 0,0 l/m 0 min 0 min 0,000 mm 0,0 UV-I 0 W/m 6,1 C 5,0 C 16,1 km/h (3 Bft) 98 %
16.12.2019 03:10 7,8 C 89 % 1005,5 hPa 0,0 l/m 0 min 0 min 0,000 mm 0,0 UV-I 0 W/m 6,1 C 6,3 C 12,9 km/h (3 Bft) 98 %
16.12.2019 03:08 7,8 C 89 % 1005,7 hPa 0,0 l/m 0 min 0 min 0,000 mm 0,0 UV-I 0 W/m 6,1 C 5,8 C 12,9 km/h (3 Bft) 98 %
16.12.2019 03:06 7,8 C 89 % 1005,7 hPa 0,0 l/m 0 min 0 min 0,000 mm 0,0 UV-I 0 W/m 6,1 C 5,9 C 12,9 km/h (3 Bft) 94 %
16.12.2019 03:04 7,7 C 89 % 1005,6 hPa 0,0 l/m 0 min 0 min 0,026 mm 0,0 UV-I 0 W/m 6,0 C 7,3 C 11,3 km/h (2 Bft) 97 %
16.12.2019 03:00 7,7 C 89 % 1005,5 hPa 0,0 l/m 0 min 0 min 0,000 mm 0,0 UV-I 0 W/m 6,0 C 7,7 C 9,7 km/h (2 Bft) 95 %
16.12.2019 02:58 7,8 C 89 % 1005,3 hPa 0,0 l/m 0 min 0 min 0,000 mm 0,0 UV-I 0 W/m 6,1 C 6,0 C 12,9 km/h (3 Bft) 94 %
16.12.2019 02:56 7,8 C 89 % 1005,5 hPa 0,0 l/m 0 min 0 min 0,000 mm 0,0 UV-I 0 W/m 6,1 C 7,3 C 11,3 km/h (2 Bft) 96 %
16.12.2019 02:54 7,7 C 89 % 1005,8 hPa 0,0 l/m 0 min 0 min 0,000 mm 0,0 UV-I 0 W/m 6,0 C 5,9 C 14,5 km/h (3 Bft) 94 %
16.12.2019 02:52 7,6 C 89 % 1005,8 hPa 0,0 l/m 0 min 0 min 0,000 mm 0,0 UV-I 0 W/m 5,9 C 4,6 C 14,5 km/h (3 Bft) 96 %
16.12.2019 02:50 7,6 C 88 % 1005,8 hPa 0,0 l/m 0 min 0 min 0,000 mm 0,0 UV-I 0 W/m 5,7 C 7,6 C 8,0 km/h (2 Bft) 93 %
16.12.2019 02:48 7,7 C 88 % 1005,7 hPa 0,0 l/m 0 min 0 min 0,000 mm 0,0 UV-I 0 W/m 5,8 C 7,7 C 8,0 km/h (2 Bft) 96 %
16.12.2019 02:46 7,7 C 88 % 1005,6 hPa 0,0 l/m 0 min 0 min 0,000 mm 0,0 UV-I 0 W/m 5,8 C 7,7 C 4,8 km/h (1 Bft) 96 %
16.12.2019 02:44 7,7 C 88 % 1005,7 hPa 0,0 l/m 0 min 0 min 0,000 mm 0,0 UV-I 0 W/m 5,8 C 7,7 C 8,0 km/h (2 Bft) 96 %
16.12.2019 02:42 7,8 C 88 % 1005,8 hPa 0,0 l/m 0 min 0 min 0,000 mm 0,0 UV-I 0 W/m 5,9 C 7,8 C 12,9 km/h (3 Bft) 97 %
16.12.2019 02:40 7,8 C 88 % 1005,8 hPa 0,0 l/m 0 min 0 min 0,000 mm 0,0 UV-I 0 W/m 5,9 C 7,8 C 8,0 km/h (2 Bft) 94 %
16.12.2019 02:38 7,8 C 88 % 1005,7 hPa 0,0 l/m 0 min 0 min 0,000 mm 0,0 UV-I 0 W/m 5,9 C 7,8 C 8,0 km/h (2 Bft) 93 %
16.12.2019 02:36 7,8 C 88 % 1005,6 hPa 0,0 l/m 0 min 0 min 0,000 mm 0,0 UV-I 0 W/m 5,9 C 7,8 C 14,5 km/h (3 Bft) 94 %
16.12.2019 02:34 7,8 C 92 % 1005,5 hPa 0,0 l/m 0 min 0 min 0,000 mm 0,0 UV-I 0 W/m 6,6 C 7,8 C 9,7 km/h (2 Bft) 94 %
16.12.2019 02:32 7,8 C 88 % 1005,6 hPa 0,0 l/m 0 min 0 min 0,000 mm 0,0 UV-I 0 W/m 5,9 C 7,7 C 11,3 km/h (2 Bft) 98 %
16.12.2019 02:30 7,9 C 88 % 1005,6 hPa 0,0 l/m 0 min 0 min 0,000 mm 0,0 UV-I 0 W/m 6,0 C 7,9 C 11,3 km/h (2 Bft) 98 %
16.12.2019 02:28 7,9 C 88 % 1005,7 hPa 0,0 l/m 0 min 0 min 0,000 mm 0,0 UV-I 0 W/m 6,0 C 7,9 C 6,4 km/h (2 Bft) 96 %
16.12.2019 02:26 7,9 C 88 % 1005,7 hPa 0,0 l/m 0 min 0 min 0,000 mm 0,0 UV-I 0 W/m 6,0 C 7,9 C 8,0 km/h (2 Bft) 97 %
16.12.2019 02:24 8,0 C 88 % 1005,7 hPa 0,0 l/m 0 min 0 min 0,000 mm 0,0 UV-I 0 W/m 6,1 C 6,1 C 12,9 km/h (3 Bft) 98 %
16.12.2019 02:22 8,0 C 88 % 1005,8 hPa 0,0 l/m 0 min 0 min 0,000 mm 0,0 UV-I 0 W/m 6,1 C 5,8 C 12,9 km/h (3 Bft) 98 %
16.12.2019 02:20 7,9 C 88 % 1005,8 hPa 0,0 l/m 0 min 0 min 0,000 mm 0,0 UV-I 0 W/m 6,0 C 7,0 C 11,3 km/h (2 Bft) 98 %
16.12.2019 02:18 8,0 C 88 % 1005,7 hPa 0,0 l/m 0 min 0 min 0,000 mm 0,0 UV-I 0 W/m 6,1 C 8,0 C 9,7 km/h (2 Bft) 98 %
16.12.2019 02:16 8,0 C 88 % 1005,7 hPa 0,0 l/m 0 min 0 min 0,000 mm 0,0 UV-I 0 W/m 6,1 C 6,5 C 11,3 km/h (2 Bft) 95 %
16.12.2019 02:14 8,0 C 88 % 1005,7 hPa 0,0 l/m 0 min 0 min 0,000 mm 0,0 UV-I 0 W/m 6,1 C 6,8 C 11,3 km/h (2 Bft) 96 %
16.12.2019 02:12 8,0 C 88 % 1005,7 hPa 0,0 l/m 0 min 0 min 0,000 mm 0,0 UV-I 0 W/m 6,1 C 6,0 C 12,9 km/h (3 Bft) 96 %
16.12.2019 02:10 7,9 C 89 % 1005,8 hPa 0,0 l/m 0 min 0 min 0,000 mm 0,0 UV-I 0 W/m 6,2 C 2,5 C 24,1 km/h (4 Bft) 96 %
16.12.2019 02:08 7,8 C 88 % 1005,8 hPa 0,0 l/m 0 min 0 min 0,000 mm 0,0 UV-I 0 W/m 5,9 C 3,1 C 17,7 km/h (3 Bft) 97 %
16.12.2019 02:06 7,8 C 88 % 1005,7 hPa 0,0 l/m 0 min 0 min 0,000 mm 0,0 UV-I 0 W/m 5,9 C 3,5 C 19,3 km/h (3 Bft) 96 %
16.12.2019 02:04 7,7 C 89 % 1005,8 hPa 0,0 l/m 0 min 0 min 0,025 mm 0,0 UV-I 0 W/m 6,0 C 2,8 C 22,5 km/h (4 Bft) 97 %
16.12.2019 02:00 7,6 C 89 % 1005,8 hPa 0,0 l/m 0 min 0 min 0,000 mm 0,0 UV-I 0 W/m 5,9 C 2,1 C 25,7 km/h (4 Bft) 96 %
16.12.2019 01:58 7,5 C 89 % 1005,8 hPa 0,0 l/m 0 min 0 min 0,000 mm 0,0 UV-I 0 W/m 5,8 C 2,9 C 22,5 km/h (4 Bft) 98 %
16.12.2019 01:56 7,4 C 89 % 1005,8 hPa 0,0 l/m 0 min 0 min 0,000 mm 0,0 UV-I 0 W/m 5,7 C 3,4 C 16,1 km/h (3 Bft) 94 %
16.12.2019 01:54 7,4 C 89 % 1005,7 hPa 0,0 l/m 0 min 0 min 0,000 mm 0,0 UV-I 0 W/m 5,7 C 3,2 C 16,1 km/h (3 Bft) 94 %
16.12.2019 01:52 7,3 C 89 % 1005,7 hPa 0,0 l/m 0 min 0 min 0,000 mm 0,0 UV-I 0 W/m 5,6 C 3,4 C 17,7 km/h (3 Bft) 98 %
16.12.2019 01:50 7,3 C 89 % 1005,7 hPa 0,0 l/m 0 min 0 min 0,000 mm 0,0 UV-I 0 W/m 5,6 C 3,6 C 16,1 km/h (3 Bft) 97 %
16.12.2019 01:48 7,3 C 90 % 1005,7 hPa 0,0 l/m 0 min 0 min 0,000 mm 0,0 UV-I 0 W/m 5,8 C 3,8 C 11,3 km/h (2 Bft) 100 %
16.12.2019 01:45 7,2 C 90 % 1005,7 hPa 0,0 l/m 0 min 0 min 0,000 mm 0,0 UV-I 0 W/m 5,7 C 3,7 C 17,7 km/h (3 Bft) 96 %
16.12.2019 01:40 7,2 C 90 % 1005,7 hPa 0,0 l/m 0 min 0 min 0,000 mm 0,0 UV-I 0 W/m 5,7 C 4,7 C 16,1 km/h (3 Bft) 92 %
16.12.2019 01:38 7,2 C 90 % 1005,8 hPa 0,0 l/m 0 min 0 min 0,000 mm 0,0 UV-I 0 W/m 5,7 C 5,6 C 11,3 km/h (2 Bft) 96 %
16.12.2019 01:36 7,2 C 90 % 1005,8 hPa 0,0 l/m 0 min 0 min 0,000 mm 0,0 UV-I 0 W/m 5,7 C 4,5 C 16,1 km/h (3 Bft) 96 %
16.12.2019 01:34 7,2 C 90 % 1005,8 hPa 0,0 l/m 0 min 0 min 0,000 mm 0,0 UV-I 0 W/m 5,7 C 3,6 C 16,1 km/h (3 Bft) 98 %
16.12.2019 01:32 7,2 C 90 % 1005,8 hPa 0,0 l/m 0 min 0 min 0,000 mm 0,0 UV-I 0 W/m 5,7 C 4,4 C 14,5 km/h (3 Bft) 98 %
16.12.2019 01:30 7,2 C 90 % 1005,8 hPa 0,0 l/m 0 min 0 min 0,000 mm 0,0 UV-I 0 W/m 5,7 C 5,5 C 12,9 km/h (3 Bft) 98 %
16.12.2019 01:28 7,2 C 90 % 1005,7 hPa 0,0 l/m 0 min 0 min 0,000 mm 0,0 UV-I 0 W/m 5,7 C 6,5 C 9,7 km/h (2 Bft) 98 %
16.12.2019 01:26 7,2 C 90 % 1005,8 hPa 0,0 l/m 0 min 0 min 0,000 mm 0,0 UV-I 0 W/m 5,7 C 6,0 C 11,3 km/h (2 Bft) 98 %
16.12.2019 01:24 7,1 C 91 % 1005,8 hPa 0,0 l/m 0 min 0 min 0,000 mm 0,0 UV-I 0 W/m 5,7 C 3,8 C 17,7 km/h (3 Bft) 96 %
16.12.2019 01:22 7,1 C 91 % 1005,8 hPa 0,0 l/m 0 min 0 min 0,000 mm 0,0 UV-I 0 W/m 5,7 C 5,6 C 11,3 km/h (2 Bft) 98 %
16.12.2019 01:20 7,1 C 91 % 1005,7 hPa 0,0 l/m 0 min 0 min 0,000 mm 0,0 UV-I 0 W/m 5,7 C 5,5 C 12,9 km/h (3 Bft) 98 %
16.12.2019 01:18 7,1 C 91 % 1005,7 hPa 0,0 l/m 0 min 0 min 0,000 mm 0,0 UV-I 0 W/m 5,7 C 5,5 C 12,9 km/h (3 Bft) 98 %
16.12.2019 01:16 7,0 C 91 % 1005,7 hPa 0,0 l/m 0 min 0 min 0,000 mm 0,0 UV-I 0 W/m 5,6 C 6,4 C 11,3 km/h (2 Bft) 96 %
16.12.2019 01:14 7,0 C 91 % 1005,7 hPa 0,0 l/m 0 min 0 min 0,000 mm 0,0 UV-I 0 W/m 5,6 C 5,8 C 12,9 km/h (3 Bft) 100 %
16.12.2019 01:12 6,9 C 91 % 1005,8 hPa 0,0 l/m 0 min 0 min 0,000 mm 0,0 UV-I 0 W/m 5,5 C 5,7 C 11,3 km/h (2 Bft) 100 %
16.12.2019 01:10 6,9 C 91 % 1005,8 hPa 0,0 l/m 0 min 0 min 0,000 mm 0,0 UV-I 0 W/m 5,5 C 6,6 C 9,7 km/h (2 Bft) 98 %
16.12.2019 01:08 6,9 C 91 % 1005,8 hPa 0,0 l/m 0 min 0 min 0,000 mm 0,0 UV-I 0 W/m 5,5 C 5,1 C 11,3 km/h (2 Bft) 100 %
16.12.2019 01:06 6,9 C 91 % 1005,8 hPa 0,0 l/m 0 min 0 min 0,000 mm 0,0 UV-I 0 W/m 5,5 C 5,8 C 12,9 km/h (3 Bft) 98 %
16.12.2019 01:04 6,8 C 91 % 1005,8 hPa 0,0 l/m 0 min 0 min 0,000 mm 0,0 UV-I 0 W/m 5,4 C 5,3 C 12,9 km/h (3 Bft) 97 %
16.12.2019 01:00 6,7 C 91 % 1005,9 hPa 0,0 l/m 0 min 0 min 0,000 mm 0,0 UV-I 0 W/m 5,3 C 5,2 C 14,5 km/h (3 Bft) 100 %
16.12.2019 00:58 6,7 C 91 % 1006,0 hPa 0,0 l/m 0 min 0 min 0,000 mm 0,0 UV-I 0 W/m 5,3 C 4,4 C 11,3 km/h (2 Bft) 100 %
16.12.2019 00:56 6,7 C 91 % 1006,0 hPa 0,0 l/m 0 min 0 min 0,000 mm 0,0 UV-I 0 W/m 5,3 C 4,0 C 12,9 km/h (3 Bft) 98 %
16.12.2019 00:54 6,8 C 91 % 1006,0 hPa 0,0 l/m 0 min 0 min 0,000 mm 0,0 UV-I 0 W/m 5,4 C 4,7 C 12,9 km/h (3 Bft) 98 %
16.12.2019 00:52 6,8 C 91 % 1006,0 hPa 0,0 l/m 0 min 0 min 0,000 mm 0,0 UV-I 0 W/m 5,4 C 4,4 C 11,3 km/h (2 Bft) 100 %
16.12.2019 00:50 6,8 C 91 % 1006,0 hPa 0,0 l/m 0 min 0 min 0,000 mm 0,0 UV-I 0 W/m 5,4 C 4,4 C 12,9 km/h (3 Bft) 98 %
16.12.2019 00:48 6,8 C 91 % 1005,9 hPa 0,0 l/m 0 min 0 min 0,000 mm 0,0 UV-I 0 W/m 5,4 C 5,3 C 11,3 km/h (2 Bft) 100 %
16.12.2019 00:46 6,8 C 91 % 1005,8 hPa 0,0 l/m 0 min 0 min 0,000 mm 0,0 UV-I 0 W/m 5,4 C 5,0 C 12,9 km/h (3 Bft) 98 %
16.12.2019 00:44 6,8 C 91 % 1005,8 hPa 0,0 l/m 0 min 0 min 0,000 mm 0,0 UV-I 0 W/m 5,4 C 4,6 C 12,9 km/h (3 Bft) 98 %
16.12.2019 00:42 6,8 C 92 % 1005,8 hPa 0,0 l/m 0 min 0 min 0,000 mm 0,0 UV-I 0 W/m 5,6 C 2,3 C 19,3 km/h (3 Bft) 98 %
16.12.2019 00:40 6,7 C 91 % 1005,8 hPa 0,0 l/m 0 min 0 min 0,000 mm 0,0 UV-I 0 W/m 5,3 C 3,4 C 16,1 km/h (3 Bft) 96 %
16.12.2019 00:38 6,7 C 92 % 1005,9 hPa 0,0 l/m 0 min 0 min 0,000 mm 0,0 UV-I 0 W/m 5,5 C 1,9 C 17,7 km/h (3 Bft) 98 %
16.12.2019 00:36 6,6 C 92 % 1005,9 hPa 0,0 l/m 0 min 0 min 0,000 mm 0,0 UV-I 0 W/m 5,4 C 3,6 C 17,7 km/h (3 Bft) 100 %
16.12.2019 00:34 6,5 C 92 % 1005,9 hPa 0,0 l/m 0 min 0 min 0,000 mm 0,0 UV-I 0 W/m 5,3 C 2,8 C 16,1 km/h (3 Bft) 100 %
16.12.2019 00:32 6,4 C 92 % 1006,0 hPa 0,0 l/m 0 min 0 min 0,000 mm 0,0 UV-I 0 W/m 5,2 C 2,7 C 16,1 km/h (3 Bft) 100 %
16.12.2019 00:30 6,4 C 92 % 1005,9 hPa 0,0 l/m 0 min 0 min 0,000 mm 0,0 UV-I 0 W/m 5,2 C 3,1 C 14,5 km/h (3 Bft) 96 %
16.12.2019 00:28 6,4 C 92 % 1006,0 hPa 0,0 l/m 0 min 0 min 0,000 mm 0,0 UV-I 0 W/m 5,2 C 3,0 C 17,7 km/h (3 Bft) 96 %
16.12.2019 00:26 6,3 C 92 % 1006,0 hPa 0,0 l/m 0 min 0 min 0,000 mm 0,0 UV-I 0 W/m 5,1 C 2,7 C 16,1 km/h (3 Bft) 98 %
16.12.2019 00:24 6,2 C 92 % 1006,0 hPa 0,0 l/m 0 min 0 min 0,000 mm 0,0 UV-I 0 W/m 5,0 C 5,6 C 9,7 km/h (2 Bft) 98 %
16.12.2019 00:20 6,2 C 92 % 1006,0 hPa 0,0 l/m 0 min 0 min 0,000 mm 0,0 UV-I 0 W/m 5,0 C 3,8 C 12,9 km/h (3 Bft) 96 %
16.12.2019 00:18 6,1 C 92 % 1006,0 hPa 0,0 l/m 0 min 0 min 0,000 mm 0,0 UV-I 0 W/m 4,9 C 4,1 C 11,3 km/h (2 Bft) 96 %
16.12.2019 00:16 6,1 C 92 % 1005,9 hPa 0,0 l/m 0 min 0 min 0,000 mm 0,0 UV-I 0 W/m 4,9 C 4,7 C 12,9 km/h (3 Bft) 98 %
16.12.2019 00:14 6,1 C 92 % 1005,9 hPa 0,0 l/m 0 min 0 min 0,000 mm 0,0 UV-I 0 W/m 4,9 C 6,1 C 8,0 km/h (2 Bft) 91 %
16.12.2019 00:12 6,2 C 92 % 1005,9 hPa 0,0 l/m 0 min 0 min 0,000 mm 0,0 UV-I 0 W/m 5,0 C 4,7 C 14,5 km/h (3 Bft) 94 %
16.12.2019 00:10 6,2 C 92 % 1005,9 hPa 0,0 l/m 0 min 0 min 0,000 mm 0,0 UV-I 0 W/m 5,0 C 5,8 C 11,3 km/h (2 Bft) 94 %
16.12.2019 00:08 6,1 C 93 % 1006,0 hPa 0,0 l/m 0 min 0 min 0,000 mm 0,0 UV-I 0 W/m 5,1 C 4,3 C 12,9 km/h (3 Bft) 96 %
16.12.2019 00:06 6,0 C 93 % 1006,1 hPa 0,0 l/m 0 min 0 min 0,000 mm 0,0 UV-I 0 W/m 5,0 C 5,5 C 11,3 km/h (2 Bft) 96 %
16.12.2019 00:04 5,9 C 92 % 1006,1 hPa 0,0 l/m 0 min 0 min 0,000 mm 0,0 UV-I 0 W/m 4,7 C 5,4 C 11,3 km/h (2 Bft) 95 %
16.12.2019 00:00 5,8 C 92 % 1006,2 hPa 0,0 l/m 0 min 0 min 0,000 mm 0,0 UV-I 0 W/m 4,6 C 4,6 C 11,3 km/h (2 Bft) 94 %
15.12.2019 23:58 5,7 C 92 % 1006,2 hPa 0,0 l/m 0 min 0 min 0,000 mm 0,0 UV-I 0 W/m 4,5 C 4,0 C 12,9 km/h (3 Bft) 96 %
15.12.2019 23:56 5,6 C 92 % 1006,3 hPa 0,0 l/m 0 min 0 min 0,000 mm 0,0 UV-I 0 W/m 4,4 C 3,6 C 14,5 km/h (3 Bft) 96 %
15.12.2019 23:54 5,5 C 92 % 1006,3 hPa 0,0 l/m 0 min 0 min 0,000 mm 0,0 UV-I 0 W/m 4,3 C 3,1 C 14,5 km/h (3 Bft) 98 %
15.12.2019 23:52 5,4 C 92 % 1006,3 hPa 0,0 l/m 0 min 0 min 0,000 mm 0,0 UV-I 0 W/m 4,2 C 3,2 C 14,5 km/h (3 Bft) 98 %
15.12.2019 23:50 5,4 C 92 % 1006,3 hPa 0,0 l/m 0 min 0 min 0,000 mm 0,0 UV-I 0 W/m 4,2 C 2,9 C 12,9 km/h (3 Bft) 100 %
15.12.2019 23:48 5,4 C 92 % 1006,4 hPa 0,0 l/m 0 min 0 min 0,000 mm 0,0 UV-I 0 W/m 4,2 C 2,5 C 14,5 km/h (3 Bft) 100 %
15.12.2019 23:46 5,3 C 91 % 1006,4 hPa 0,0 l/m 0 min 0 min 0,000 mm 0,0 UV-I 0 W/m 4,0 C 2,2 C 12,9 km/h (3 Bft) 96 %
15.12.2019 23:44 5,3 C 91 % 1006,4 hPa 0,0 l/m 0 min 0 min 0,000 mm 0,0 UV-I 0 W/m 4,0 C 4,1 C 14,5 km/h (3 Bft) 98 %
15.12.2019 23:42 5,3 C 91 % 1006,3 hPa 0,0 l/m 0 min 0 min 0,000 mm 0,0 UV-I 0 W/m 4,0 C 4,8 C 12,9 km/h (3 Bft) 100 %
15.12.2019 23:40 5,3 C 91 % 1006,3 hPa 0,0 l/m 0 min 0 min 0,000 mm 0,0 UV-I 0 W/m 4,0 C 5,0 C 9,7 km/h (2 Bft) 100 %
15.12.2019 23:38 5,3 C 91 % 1006,4 hPa 0,0 l/m 0 min 0 min 0,000 mm 0,0 UV-I 0 W/m 4,0 C 4,9 C 9,7 km/h (2 Bft) 100 %
15.12.2019 23:36 5,3 C 91 % 1006,3 hPa 0,0 l/m 0 min 0 min 0,000 mm 0,0 UV-I 0 W/m 4,0 C 5,0 C 9,7 km/h (2 Bft) 100 %
15.12.2019 23:34 5,3 C 91 % 1006,3 hPa 0,0 l/m 0 min 0 min 0,000 mm 0,0 UV-I 0 W/m 4,0 C 5,3 C 8,0 km/h (2 Bft) 94 %
15.12.2019 23:32 5,3 C 91 % 1006,3 hPa 0,0 l/m 0 min 0 min 0,000 mm 0,0 UV-I 0 W/m 4,0 C 4,7 C 9,7 km/h (2 Bft) 100 %
15.12.2019 23:30 5,2 C 91 % 1006,3 hPa 0,0 l/m 0 min 0 min 0,000 mm 0,0 UV-I 0 W/m 3,9 C 4,9 C 9,7 km/h (2 Bft) 100 %
15.12.2019 23:28 5,2 C 91 % 1006,3 hPa 0,0 l/m 0 min 0 min 0,000 mm 0,0 UV-I 0 W/m 3,9 C 5,2 C 9,7 km/h (2 Bft) 100 %
15.12.2019 23:26 5,3 C 91 % 1006,3 hPa 0,0 l/m 0 min 0 min 0,000 mm 0,0 UV-I 0 W/m 4,0 C 4,7 C 9,7 km/h (2 Bft) 100 %
15.12.2019 23:24 5,2 C 91 % 1006,3 hPa 0,0 l/m 0 min 0 min 0,000 mm 0,0 UV-I 0 W/m 3,9 C 4,4 C 9,7 km/h (2 Bft) 98 %
15.12.2019 23:22 5,3 C 91 % 1006,3 hPa 0,0 l/m 0 min 0 min 0,000 mm 0,0 UV-I 0 W/m 4,0 C 4,3 C 11,3 km/h (2 Bft) 96 %
15.12.2019 23:20 5,2 C 91 % 1006,3 hPa 0,0 l/m 0 min 0 min 0,000 mm 0,0 UV-I 0 W/m 3,9 C 3,7 C 11,3 km/h (2 Bft) 100 %
15.12.2019 23:18 5,2 C 91 % 1006,3 hPa 0,0 l/m 0 min 0 min 0,000 mm 0,0 UV-I 0 W/m 3,9 C 3,6 C 11,3 km/h (2 Bft) 98 %
15.12.2019 23:16 5,2 C 91 % 1006,4 hPa 0,0 l/m 0 min 0 min 0,000 mm 0,0 UV-I 0 W/m 3,9 C 2,9 C 12,9 km/h (3 Bft) 98 %
15.12.2019 23:14 5,3 C 91 % 1006,3 hPa 0,0 l/m 0 min 0 min 0,000 mm 0,0 UV-I 0 W/m 4,0 C 3,4 C 11,3 km/h (2 Bft) 100 %
15.12.2019 23:12 5,3 C 91 % 1006,2 hPa 0,0 l/m 0 min 0 min 0,000 mm 0,0 UV-I 0 W/m 4,0 C 2,6 C 14,5 km/h (3 Bft) 100 %
15.12.2019 23:10 5,2 C 91 % 1006,3 hPa 0,0 l/m 0 min 0 min 0,000 mm 0,0 UV-I 0 W/m 3,9 C 1,4 C 14,5 km/h (3 Bft) 100 %
15.12.2019 23:08 5,1 C 91 % 1006,3 hPa 0,0 l/m 0 min 0 min 0,000 mm 0,0 UV-I 0 W/m 3,8 C 1,4 C 14,5 km/h (3 Bft) 100 %
15.12.2019 23:06 5,2 C 91 % 1006,2 hPa 0,0 l/m 0 min 0 min 0,000 mm 0,0 UV-I 0 W/m 3,9 C 2,4 C 14,5 km/h (3 Bft) 100 %
15.12.2019 23:04 5,1 C 90 % 1006,3 hPa 0,0 l/m 0 min 0 min 0,026 mm 0,0 UV-I 0 W/m 3,6 C 2,0 C 20,9 km/h (4 Bft) 94 %
15.12.2019 23:00 5,0 C 90 % 1006,3 hPa 0,0 l/m 0 min 0 min 0,000 mm 0,0 UV-I 0 W/m 3,5 C 3,2 C 14,5 km/h (3 Bft) 96 %
15.12.2019 22:58 5,0 C 90 % 1006,4 hPa 0,0 l/m 0 min 0 min 0,000 mm 0,0 UV-I 0 W/m 3,5 C 2,1 C 19,3 km/h (3 Bft) 91 %
15.12.2019 22:56 4,9 C 90 % 1006,4 hPa 0,0 l/m 0 min 0 min 0,000 mm 0,0 UV-I 0 W/m 3,4 C 1,9 C 16,1 km/h (3 Bft) 96 %
15.12.2019 22:54 4,9 C 89 % 1006,3 hPa 0,0 l/m 0 min 0 min 0,000 mm 0,0 UV-I 0 W/m 3,2 C 2,5 C 11,3 km/h (2 Bft) 96 %
15.12.2019 22:52 5,0 C 89 % 1006,3 hPa 0,0 l/m 0 min 0 min 0,000 mm 0,0 UV-I 0 W/m 3,3 C 2,8 C 11,3 km/h (2 Bft) 96 %
15.12.2019 22:50 5,0 C 89 % 1006,4 hPa 0,0 l/m 0 min 0 min 0,000 mm 0,0 UV-I 0 W/m 3,3 C 3,0 C 12,9 km/h (3 Bft) 96 %
15.12.2019 22:48 4,9 C 89 % 1006,3 hPa 0,0 l/m 0 min 0 min 0,000 mm 0,0 UV-I 0 W/m 3,2 C 2,2 C 12,9 km/h (3 Bft) 96 %
15.12.2019 22:46 4,9 C 89 % 1006,3 hPa 0,0 l/m 0 min 0 min 0,000 mm 0,0 UV-I 0 W/m 3,2 C 1,6 C 16,1 km/h (3 Bft) 89 %
15.12.2019 22:44 4,9 C 88 % 1006,3 hPa 0,0 l/m 0 min 0 min 0,000 mm 0,0 UV-I 0 W/m 3,1 C 3,3 C 12,9 km/h (3 Bft) 91 %
15.12.2019 22:42 4,9 C 88 % 1006,3 hPa 0,0 l/m 0 min 0 min 0,000 mm 0,0 UV-I 0 W/m 3,1 C 4,2 C 11,3 km/h (2 Bft) 93 %
15.12.2019 22:40 4,9 C 88 % 1006,4 hPa 0,0 l/m 0 min 0 min 0,000 mm 0,0 UV-I 0 W/m 3,1 C 3,5 C 12,9 km/h (3 Bft) 94 %
15.12.2019 22:38 4,9 C 88 % 1006,4 hPa 0,0 l/m 0 min 0 min 0,000 mm 0,0 UV-I 0 W/m 3,1 C 1,8 C 14,5 km/h (3 Bft) 91 %
15.12.2019 22:36 4,9 C 88 % 1006,5 hPa 0,0 l/m 0 min 0 min 0,000 mm 0,0 UV-I 0 W/m 3,1 C 3,4 C 11,3 km/h (2 Bft) 96 %
15.12.2019 22:34 4,9 C 87 % 1006,5 hPa 0,0 l/m 0 min 0 min 0,000 mm 0,0 UV-I 0 W/m 2,9 C 3,8 C 12,9 km/h (3 Bft) 96 %
15.12.2019 22:32 4,9 C 87 % 1006,5 hPa 0,0 l/m 0 min 0 min 0,000 mm 0,0 UV-I 0 W/m 2,9 C 4,9 C 8,0 km/h (2 Bft) 94 %
15.12.2019 22:30 5,0 C 87 % 1006,6 hPa 0,0 l/m 0 min 0 min 0,000 mm 0,0 UV-I 0 W/m 3,0 C 5,0 C 8,0 km/h (2 Bft) 94 %
15.12.2019 22:28 5,0 C 87 % 1006,6 hPa 0,0 l/m 0 min 0 min 0,000 mm 0,0 UV-I 0 W/m 3,0 C 4,8 C 9,7 km/h (2 Bft) 94 %
15.12.2019 22:26 5,1 C 87 % 1006,6 hPa 0,0 l/m 0 min 0 min 0,000 mm 0,0 UV-I 0 W/m 3,1 C 4,4 C 11,3 km/h (2 Bft) 93 %
15.12.2019 22:24 5,0 C 87 % 1006,6 hPa 0,0 l/m 0 min 0 min 0,000 mm 0,0 UV-I 0 W/m 3,0 C 3,8 C 17,7 km/h (3 Bft) 96 %
15.12.2019 22:22 5,1 C 86 % 1006,5 hPa 0,0 l/m 0 min 0 min 0,000 mm 0,0 UV-I 0 W/m 3,0 C 5,1 C 11,3 km/h (2 Bft) 96 %
15.12.2019 22:20 5,1 C 87 % 1006,5 hPa 0,0 l/m 0 min 0 min 0,000 mm 0,0 UV-I 0 W/m 3,1 C 5,1 C 9,7 km/h (2 Bft) 96 %
15.12.2019 22:18 5,1 C 86 % 1006,6 hPa 0,0 l/m 0 min 0 min 0,000 mm 0,0 UV-I 0 W/m 3,0 C 5,1 C 8,0 km/h (2 Bft) 96 %
15.12.2019 22:16 5,1 C 86 % 1006,6 hPa 0,0 l/m 0 min 0 min 0,000 mm 0,0 UV-I 0 W/m 3,0 C 5,1 C 11,3 km/h (2 Bft) 96 %
15.12.2019 22:14 5,1 C 86 % 1006,6 hPa 0,0 l/m 0 min 0 min 0,000 mm 0,0 UV-I 0 W/m 3,0 C 5,0 C 9,7 km/h (2 Bft) 94 %
15.12.2019 22:12 5,1 C 86 % 1006,6 hPa 0,0 l/m 0 min 0 min 0,000 mm 0,0 UV-I 0 W/m 3,0 C 5,1 C 9,7 km/h (2 Bft) 96 %
15.12.2019 22:10 5,1 C 86 % 1006,6 hPa 0,0 l/m 0 min 0 min 0,000 mm 0,0 UV-I 0 W/m 3,0 C 5,1 C 9,7 km/h (2 Bft) 91 %
15.12.2019 22:08 5,1 C 86 % 1006,6 hPa 0,0 l/m 0 min 0 min 0,000 mm 0,0 UV-I 0 W/m 3,0 C 4,8 C 11,3 km/h (2 Bft) 96 %
15.12.2019 22:06 5,1 C 86 % 1006,6 hPa 0,0 l/m 0 min 0 min 0,000 mm 0,0 UV-I 0 W/m 3,0 C 5,1 C 6,4 km/h (2 Bft) 93 %
15.12.2019 22:04 5,1 C 86 % 1006,5 hPa 0,0 l/m 0 min 0 min 0,025 mm 0,0 UV-I 0 W/m 3,0 C 5,1 C 8,0 km/h (2 Bft) 95 %
15.12.2019 22:00 5,1 C 86 % 1006,6 hPa 0,0 l/m 0 min 0 min 0,000 mm 0,0 UV-I 0 W/m 3,0 C 5,1 C 8,0 km/h (2 Bft) 91 %
15.12.2019 21:58 5,1 C 86 % 1006,6 hPa 0,0 l/m 0 min 0 min 0,000 mm 0,0 UV-I 0 W/m 3,0 C 5,1 C 9,7 km/h (2 Bft) 96 %
15.12.2019 21:56 5,1 C 85 % 1006,5 hPa 0,0 l/m 0 min 0 min 0,000 mm 0,0 UV-I 0 W/m 2,8 C 4,5 C 12,9 km/h (3 Bft) 98 %
15.12.2019 21:54 5,1 C 85 % 1006,5 hPa 0,0 l/m 0 min 0 min 0,000 mm 0,0 UV-I 0 W/m 2,8 C 4,3 C 11,3 km/h (2 Bft) 96 %
15.12.2019 21:52 5,1 C 85 % 1006,5 hPa 0,0 l/m 0 min 0 min 0,000 mm 0,0 UV-I 0 W/m 2,8 C 4,3 C 11,3 km/h (2 Bft) 96 %
15.12.2019 21:50 5,1 C 85 % 1006,5 hPa 0,0 l/m 0 min 0 min 0,000 mm 0,0 UV-I 0 W/m 2,8 C 3,6 C 11,3 km/h (2 Bft) 96 %
15.12.2019 21:48 5,1 C 85 % 1006,5 hPa 0,0 l/m 0 min 0 min 0,000 mm 0,0 UV-I 0 W/m 2,8 C 4,1 C 11,3 km/h (2 Bft) 98 %
15.12.2019 21:46 5,1 C 85 % 1006,5 hPa 0,0 l/m 0 min 0 min 0,000 mm 0,0 UV-I 0 W/m 2,8 C 3,6 C 11,3 km/h (2 Bft) 96 %
15.12.2019 21:44 5,0 C 85 % 1006,5 hPa 0,0 l/m 0 min 0 min 0,000 mm 0,0 UV-I 0 W/m 2,7 C 4,8 C 11,3 km/h (2 Bft) 96 %
15.12.2019 21:42 4,9 C 85 % 1006,6 hPa 0,0 l/m 0 min 0 min 0,000 mm 0,0 UV-I 0 W/m 2,6 C 2,9 C 14,5 km/h (3 Bft) 98 %
15.12.2019 21:40 4,9 C 85 % 1006,6 hPa 0,0 l/m 0 min 0 min 0,000 mm 0,0 UV-I 0 W/m 2,6 C 3,5 C 9,7 km/h (2 Bft) 100 %
15.12.2019 21:38 4,9 C 84 % 1006,6 hPa 0,0 l/m 0 min 0 min 0,000 mm 0,0 UV-I 0 W/m 2,4 C 2,8 C 14,5 km/h (3 Bft) 98 %
15.12.2019 21:36 4,9 C 84 % 1006,5 hPa 0,0 l/m 0 min 0 min 0,000 mm 0,0 UV-I 0 W/m 2,4 C 4,3 C 9,7 km/h (2 Bft) 100 %
15.12.2019 21:34 4,9 C 84 % 1006,5 hPa 0,0 l/m 0 min 0 min 0,000 mm 0,0 UV-I 0 W/m 2,4 C 2,6 C 12,9 km/h (3 Bft) 96 %
15.12.2019 21:32 4,9 C 84 % 1006,5 hPa 0,0 l/m 0 min 0 min 0,000 mm 0,0 UV-I 0 W/m 2,4 C 3,6 C 12,9 km/h (3 Bft) 100 %
15.12.2019 21:30 5,0 C 84 % 1006,5 hPa 0,0 l/m 0 min 0 min 0,000 mm 0,0 UV-I 0 W/m 2,5 C 5,0 C 16,1 km/h (3 Bft) 100 %
15.12.2019 21:28 5,0 C 84 % 1006,5 hPa 0,0 l/m 0 min 0 min 0,000 mm 0,0 UV-I 0 W/m 2,5 C 5,0 C 6,4 km/h (2 Bft) 100 %
15.12.2019 21:26 5,0 C 84 % 1006,5 hPa 0,0 l/m 0 min 0 min 0,000 mm 0,0 UV-I 0 W/m 2,5 C 5,0 C 9,7 km/h (2 Bft) 91 %
15.12.2019 21:24 5,0 C 83 % 1006,4 hPa 0,0 l/m 0 min 0 min 0,000 mm 0,0 UV-I 0 W/m 2,4 C 3,6 C 12,9 km/h (3 Bft) 94 %
15.12.2019 21:22 5,1 C 83 % 1006,4 hPa 0,0 l/m 0 min 0 min 0,000 mm 0,0 UV-I 0 W/m 2,5 C 4,4 C 12,9 km/h (3 Bft) 96 %
15.12.2019 21:20 5,1 C 83 % 1006,4 hPa 0,0 l/m 0 min 0 min 0,000 mm 0,0 UV-I 0 W/m 2,5 C 3,7 C 12,9 km/h (3 Bft) 94 %
15.12.2019 21:18 5,1 C 83 % 1006,4 hPa 0,0 l/m 0 min 0 min 0,000 mm 0,0 UV-I 0 W/m 2,5 C 5,1 C 9,7 km/h (2 Bft) 96 %
15.12.2019 21:16 5,2 C 83 % 1006,4 hPa 0,0 l/m 0 min 0 min 0,000 mm 0,0 UV-I 0 W/m 2,6 C 4,4 C 9,7 km/h (2 Bft) 98 %
15.12.2019 21:14 5,2 C 83 % 1006,4 hPa 0,0 l/m 0 min 0 min 0,000 mm 0,0 UV-I 0 W/m 2,6 C 4,9 C 9,7 km/h (2 Bft) 98 %
15.12.2019 21:12 5,2 C 83 % 1006,4 hPa 0,0 l/m 0 min 0 min 0,000 mm 0,0 UV-I 0 W/m 2,6 C 5,0 C 9,7 km/h (2 Bft) 96 %
15.12.2019 21:10 5,2 C 83 % 1006,4 hPa 0,0 l/m 0 min 0 min 0,000 mm 0,0 UV-I 0 W/m 2,6 C 2,8 C 12,9 km/h (3 Bft) 98 %
15.12.2019 21:08 5,2 C 83 % 1006,4 hPa 0,0 l/m 0 min 0 min 0,000 mm 0,0 UV-I 0 W/m 2,6 C 3,3 C 14,5 km/h (3 Bft) 98 %
15.12.2019 21:06 5,3 C 83 % 1006,4 hPa 0,0 l/m 0 min 0 min 0,000 mm 0,0 UV-I 0 W/m 2,7 C 5,0 C 9,7 km/h (2 Bft) 98 %
15.12.2019 21:04 5,3 C 83 % 1006,3 hPa 0,0 l/m 0 min 0 min 0,025 mm 0,0 UV-I 0 W/m 2,7 C 3,5 C 14,5 km/h (3 Bft) 96 %
15.12.2019 21:00 5,4 C 83 % 1006,3 hPa 0,0 l/m 0 min 0 min 0,000 mm 0,0 UV-I 0 W/m 2,7 C 1,9 C 16,1 km/h (3 Bft) 96 %
15.12.2019 20:58 5,4 C 83 % 1006,3 hPa 0,0 l/m 0 min 0 min 0,000 mm 0,0 UV-I 0 W/m 2,7 C 3,2 C 14,5 km/h (3 Bft) 98 %
15.12.2019 20:56 5,4 C 83 % 1006,4 hPa 0,0 l/m 0 min 0 min 0,000 mm 0,0 UV-I 0 W/m 2,7 C 3,9 C 12,9 km/h (3 Bft) 98 %
15.12.2019 20:54 5,3 C 83 % 1006,4 hPa 0,0 l/m 0 min 0 min 0,000 mm 0,0 UV-I 0 W/m 2,7 C 3,8 C 12,9 km/h (3 Bft) 100 %
15.12.2019 20:52 5,3 C 83 % 1006,4 hPa 0,0 l/m 0 min 0 min 0,000 mm 0,0 UV-I 0 W/m 2,7 C 1,9 C 16,1 km/h (3 Bft) 100 %
15.12.2019 20:50 5,3 C 83 % 1006,4 hPa 0,0 l/m 0 min 0 min 0,000 mm 0,0 UV-I 0 W/m 2,7 C 2,3 C 14,5 km/h (3 Bft) 100 %
15.12.2019 20:48 5,4 C 83 % 1006,3 hPa 0,0 l/m 0 min 0 min 0,000 mm 0,0 UV-I 0 W/m 2,7 C 4,3 C 11,3 km/h (2 Bft) 100 %
15.12.2019 20:46 5,4 C 83 % 1006,4 hPa 0,0 l/m 0 min 0 min 0,000 mm 0,0 UV-I 0 W/m 2,7 C 3,4 C 12,9 km/h (3 Bft) 98 %
15.12.2019 20:44 5,4 C 83 % 1006,4 hPa 0,0 l/m 0 min 0 min 0,000 mm 0,0 UV-I 0 W/m 2,7 C 4,7 C 9,7 km/h (2 Bft) 96 %
15.12.2019 20:42 5,5 C 83 % 1006,4 hPa 0,0 l/m 0 min 0 min 0,000 mm 0,0 UV-I 0 W/m 2,8 C 5,2 C 11,3 km/h (2 Bft) 100 %
15.12.2019 20:40 5,5 C 83 % 1006,4 hPa 0,0 l/m 0 min 0 min 0,000 mm 0,0 UV-I 0 W/m 2,8 C 4,4 C 12,9 km/h (3 Bft) 100 %
15.12.2019 20:38 5,5 C 83 % 1006,4 hPa 0,0 l/m 0 min 0 min 0,000 mm 0,0 UV-I 0 W/m 2,8 C 3,3 C 17,7 km/h (3 Bft) 98 %
15.12.2019 20:36 5,5 C 83 % 1006,3 hPa 0,0 l/m 0 min 0 min 0,000 mm 0,0 UV-I 0 W/m 2,8 C 2,6 C 14,5 km/h (3 Bft) 98 %
15.12.2019 20:34 5,5 C 83 % 1006,3 hPa 0,0 l/m 0 min 0 min 0,000 mm 0,0 UV-I 0 W/m 2,8 C 3,5 C 14,5 km/h (3 Bft) 96 %
15.12.2019 20:32 5,6 C 83 % 1006,3 hPa 0,0 l/m 0 min 0 min 0,000 mm 0,0 UV-I 0 W/m 2,9 C 3,8 C 12,9 km/h (3 Bft) 98 %
15.12.2019 20:30 5,6 C 84 % 1006,4 hPa 0,0 l/m 0 min 0 min 0,000 mm 0,0 UV-I 0 W/m 3,1 C 2,9 C 16,1 km/h (3 Bft) 98 %
15.12.2019 20:28 5,6 C 84 % 1006,4 hPa 0,0 l/m 0 min 0 min 0,000 mm 0,0 UV-I 0 W/m 3,1 C 1,6 C 16,1 km/h (3 Bft) 96 %
15.12.2019 20:26 5,6 C 83 % 1006,3 hPa 0,0 l/m 0 min 0 min 0,000 mm 0,0 UV-I 0 W/m 2,9 C 3,9 C 12,9 km/h (3 Bft) 98 %
15.12.2019 20:24 5,7 C 83 % 1006,3 hPa 0,0 l/m 0 min 0 min 0,000 mm 0,0 UV-I 0 W/m 3,0 C 3,9 C 12,9 km/h (3 Bft) 98 %
15.12.2019 20:22 5,7 C 84 % 1006,3 hPa 0,0 l/m 0 min 0 min 0,000 mm 0,0 UV-I 0 W/m 3,2 C 2,2 C 16,1 km/h (3 Bft) 98 %
15.12.2019 20:20 5,7 C 83 % 1006,2 hPa 0,0 l/m 0 min 0 min 0,000 mm 0,0 UV-I 0 W/m 3,0 C 4,4 C 14,5 km/h (3 Bft) 96 %
15.12.2019 20:18 5,7 C 83 % 1006,2 hPa 0,0 l/m 0 min 0 min 0,000 mm 0,0 UV-I 0 W/m 3,0 C 3,1 C 19,3 km/h (3 Bft) 98 %
15.12.2019 20:16 5,7 C 83 % 1006,2 hPa 0,0 l/m 0 min 0 min 0,000 mm 0,0 UV-I 0 W/m 3,0 C 2,6 C 16,1 km/h (3 Bft) 96 %
15.12.2019 20:14 5,7 C 83 % 1006,1 hPa 0,0 l/m 0 min 0 min 0,000 mm 0,0 UV-I 0 W/m 3,0 C 1,8 C 29,0 km/h (5 Bft) 96 %
15.12.2019 20:12 5,7 C 83 % 1006,1 hPa 0,0 l/m 0 min 0 min 0,000 mm 0,0 UV-I 0 W/m 3,0 C 3,3 C 17,7 km/h (3 Bft) 98 %
15.12.2019 20:10 5,7 C 83 % 1006,0 hPa 0,0 l/m 0 min 0 min 0,000 mm 0,0 UV-I 0 W/m 3,0 C 2,8 C 17,7 km/h (3 Bft) 96 %
15.12.2019 20:08 5,7 C 83 % 1005,9 hPa 0,0 l/m 0 min 0 min 0,000 mm 0,0 UV-I 0 W/m 3,0 C 0,7 C 20,9 km/h (4 Bft) 94 %
15.12.2019 20:06 5,8 C 83 % 1006,0 hPa 0,0 l/m 0 min 0 min 0,000 mm 0,0 UV-I 0 W/m 3,1 C 2,7 C 16,1 km/h (3 Bft) 98 %
15.12.2019 20:04 5,8 C 83 % 1005,9 hPa 0,0 l/m 0 min 0 min 0,026 mm 0,0 UV-I 0 W/m 3,1 C 2,6 C 17,7 km/h (3 Bft) 97 %
15.12.2019 20:00 5,8 C 83 % 1005,8 hPa 0,0 l/m 0 min 0 min 0,000 mm 0,0 UV-I 0 W/m 3,1 C 1,7 C 17,7 km/h (3 Bft) 98 %
15.12.2019 19:58 5,8 C 83 % 1005,8 hPa 0,0 l/m 0 min 0 min 0,000 mm 0,0 UV-I 0 W/m 3,1 C 0,9 C 19,3 km/h (3 Bft) 98 %
15.12.2019 19:56 5,8 C 83 % 1005,9 hPa 0,0 l/m 0 min 0 min 0,000 mm 0,0 UV-I 0 W/m 3,1 C 0,5 C 22,5 km/h (4 Bft) 96 %
15.12.2019 19:54 5,8 C 83 % 1005,9 hPa 0,0 l/m 0 min 0 min 0,000 mm 0,0 UV-I 0 W/m 3,1 C 1,4 C 20,9 km/h (4 Bft) 98 %
15.12.2019 19:52 5,8 C 83 % 1005,8 hPa 0,0 l/m 0 min 0 min 0,000 mm 0,0 UV-I 0 W/m 3,1 C 2,4 C 16,1 km/h (3 Bft) 96 %
15.12.2019 19:50 5,9 C 83 % 1005,8 hPa 0,0 l/m 0 min 0 min 0,000 mm 0,0 UV-I 0 W/m 3,2 C 1,4 C 17,7 km/h (3 Bft) 98 %
15.12.2019 19:48 5,8 C 83 % 1005,8 hPa 0,0 l/m 0 min 0 min 0,000 mm 0,0 UV-I 0 W/m 3,1 C 2,5 C 20,9 km/h (4 Bft) 98 %
15.12.2019 19:46 5,9 C 83 % 1005,7 hPa 0,0 l/m 0 min 0 min 0,000 mm 0,0 UV-I 0 W/m 3,2 C 3,9 C 12,9 km/h (3 Bft) 94 %
15.12.2019 19:44 5,9 C 83 % 1005,7 hPa 0,0 l/m 0 min 0 min 0,000 mm 0,0 UV-I 0 W/m 3,2 C 2,5 C 17,7 km/h (3 Bft) 98 %
15.12.2019 19:42 5,9 C 83 % 1005,7 hPa 0,0 l/m 0 min 0 min 0,000 mm 0,0 UV-I 0 W/m 3,2 C 2,5 C 19,3 km/h (3 Bft) 100 %
15.12.2019 19:40 5,9 C 83 % 1005,7 hPa 0,0 l/m 0 min 0 min 0,000 mm 0,0 UV-I 0 W/m 3,2 C 2,5 C 17,7 km/h (3 Bft) 100 %
15.12.2019 19:38 5,9 C 83 % 1005,7 hPa 0,0 l/m 0 min 0 min 0,000 mm 0,0 UV-I 0 W/m 3,2 C 2,9 C 17,7 km/h (3 Bft) 100 %
15.12.2019 19:36 5,9 C 83 % 1005,7 hPa 0,0 l/m 0 min 0 min 0,000 mm 0,0 UV-I 0 W/m 3,2 C 2,3 C 16,1 km/h (3 Bft) 100 %
15.12.2019 19:34 6,0 C 83 % 1005,6 hPa 0,0 l/m 0 min 0 min 0,000 mm 0,0 UV-I 0 W/m 3,3 C 1,4 C 19,3 km/h (3 Bft) 98 %
15.12.2019 19:32 6,0 C 83 % 1005,5 hPa 0,0 l/m 0 min 0 min 0,000 mm 0,0 UV-I 0 W/m 3,3 C 2,8 C 16,1 km/h (3 Bft) 95 %
15.12.2019 19:30 6,1 C 83 % 1005,5 hPa 0,0 l/m 0 min 0 min 0,000 mm 0,0 UV-I 0 W/m 3,4 C 3,3 C 16,1 km/h (3 Bft) 100 %
15.12.2019 19:28 6,1 C 83 % 1005,5 hPa 0,0 l/m 0 min 0 min 0,000 mm 0,0 UV-I 0 W/m 3,4 C 2,7 C 19,3 km/h (3 Bft) 96 %
15.12.2019 19:26 6,1 C 83 % 1005,6 hPa 0,0 l/m 0 min 0 min 0,000 mm 0,0 UV-I 0 W/m 3,4 C 3,2 C 16,1 km/h (3 Bft) 100 %
15.12.2019 19:24 6,1 C 83 % 1005,5 hPa 0,0 l/m 0 min 0 min 0,000 mm 0,0 UV-I 0 W/m 3,4 C 2,1 C 20,9 km/h (4 Bft) 100 %
15.12.2019 19:22 6,1 C 83 % 1005,5 hPa 0,0 l/m 0 min 0 min 0,000 mm 0,0 UV-I 0 W/m 3,4 C 2,4 C 20,9 km/h (4 Bft) 100 %
15.12.2019 19:20 6,1 C 83 % 1005,5 hPa 0,0 l/m 0 min 0 min 0,000 mm 0,0 UV-I 0 W/m 3,4 C 2,0 C 17,7 km/h (3 Bft) 100 %
15.12.2019 19:18 6,1 C 83 % 1005,4 hPa 0,0 l/m 0 min 0 min 0,000 mm 0,0 UV-I 0 W/m 3,4 C 2,8 C 17,7 km/h (3 Bft) 100 %
15.12.2019 19:16 6,1 C 83 % 1005,4 hPa 0,0 l/m 0 min 0 min 0,000 mm 0,0 UV-I 0 W/m 3,4 C 2,1 C 19,3 km/h (3 Bft) 100 %
15.12.2019 19:14 6,1 C 83 % 1005,4 hPa 0,0 l/m 0 min 0 min 0,000 mm 0,0 UV-I 0 W/m 3,4 C 3,1 C 16,1 km/h (3 Bft) 100 %
15.12.2019 19:12 6,2 C 83 % 1005,4 hPa 0,0 l/m 0 min 0 min 0,000 mm 0,0 UV-I 0 W/m 3,5 C 3,7 C 12,9 km/h (3 Bft) 98 %
15.12.2019 19:10 6,2 C 83 % 1005,4 hPa 0,0 l/m 0 min 0 min 0,000 mm 0,0 UV-I 0 W/m 3,5 C 3,2 C 20,9 km/h (4 Bft) 100 %
15.12.2019 19:08 6,2 C 83 % 1005,4 hPa 0,0 l/m 0 min 0 min 0,000 mm 0,0 UV-I 0 W/m 3,5 C 1,0 C 22,5 km/h (4 Bft) 100 %
15.12.2019 19:06 6,2 C 83 % 1005,3 hPa 0,0 l/m 0 min 0 min 0,000 mm 0,0 UV-I 0 W/m 3,5 C 3,5 C 17,7 km/h (3 Bft) 100 %
15.12.2019 19:04 6,2 C 83 % 1005,3 hPa 0,0 l/m 0 min 0 min 0,025 mm 0,0 UV-I 0 W/m 3,5 C 3,1 C 20,9 km/h (4 Bft) 100 %
15.12.2019 19:00 6,3 C 83 % 1005,2 hPa 0,0 l/m 0 min 0 min 0,000 mm 0,0 UV-I 0 W/m 3,6 C 4,1 C 12,9 km/h (3 Bft) 98 %
15.12.2019 18:58 6,3 C 83 % 1005,1 hPa 0,0 l/m 0 min 0 min 0,000 mm 0,0 UV-I 0 W/m 3,6 C 3,5 C 19,3 km/h (3 Bft) 96 %
15.12.2019 18:56 6,2 C 83 % 1005,1 hPa 0,0 l/m 0 min 0 min 0,000 mm 0,0 UV-I 0 W/m 3,5 C 1,6 C 24,1 km/h (4 Bft) 100 %
15.12.2019 18:54 6,2 C 83 % 1005,1 hPa 0,0 l/m 0 min 0 min 0,000 mm 0,0 UV-I 0 W/m 3,5 C 2,0 C 24,1 km/h (4 Bft) 100 %
15.12.2019 18:52 6,2 C 82 % 1005,1 hPa 0,0 l/m 0 min 0 min 0,000 mm 0,0 UV-I 0 W/m 3,4 C 2,6 C 27,4 km/h (4 Bft) 100 %
15.12.2019 18:50 6,2 C 82 % 1005,1 hPa 0,0 l/m 0 min 0 min 0,000 mm 0,0 UV-I 0 W/m 3,4 C 3,3 C 17,7 km/h (3 Bft) 96 %
15.12.2019 18:48 6,3 C 82 % 1005,1 hPa 0,0 l/m 0 min 0 min 0,000 mm 0,0 UV-I 0 W/m 3,5 C 2,2 C 19,3 km/h (3 Bft) 94 %
15.12.2019 18:46 6,3 C 82 % 1005,1 hPa 0,0 l/m 0 min 0 min 0,000 mm 0,0 UV-I 0 W/m 3,5 C 2,0 C 17,7 km/h (3 Bft) 98 %
15.12.2019 18:44 6,3 C 82 % 1005,1 hPa 0,0 l/m 0 min 0 min 0,000 mm 0,0 UV-I 0 W/m 3,5 C 1,3 C 19,3 km/h (3 Bft) 96 %
15.12.2019 18:42 6,3 C 82 % 1005,1 hPa 0,0 l/m 0 min 0 min 0,000 mm 0,0 UV-I 0 W/m 3,5 C 1,7 C 17,7 km/h (3 Bft) 95 %
15.12.2019 18:40 6,3 C 82 % 1005,1 hPa 0,0 l/m 0 min 0 min 0,000 mm 0,0 UV-I 0 W/m 3,5 C 1,9 C 20,9 km/h (4 Bft) 96 %
15.12.2019 18:38 6,3 C 82 % 1005,1 hPa 0,0 l/m 0 min 0 min 0,000 mm 0,0 UV-I 0 W/m 3,5 C 1,6 C 19,3 km/h (3 Bft) 96 %
15.12.2019 18:36 6,3 C 81 % 1005,1 hPa 0,0 l/m 0 min 0 min 0,000 mm 0,0 UV-I 0 W/m 3,3 C 0,2 C 25,7 km/h (4 Bft) 94 %
15.12.2019 18:34 6,3 C 81 % 1005,1 hPa 0,0 l/m 0 min 0 min 0,000 mm 0,0 UV-I 0 W/m 3,3 C 1,0 C 24,1 km/h (4 Bft) 93 %
15.12.2019 18:32 6,3 C 81 % 1005,0 hPa 0,0 l/m 0 min 0 min 0,000 mm 0,0 UV-I 0 W/m 3,3 C 1,1 C 22,5 km/h (4 Bft) 94 %
15.12.2019 18:30 6,3 C 81 % 1005,0 hPa 0,0 l/m 0 min 0 min 0,000 mm 0,0 UV-I 0 W/m 3,3 C 2,0 C 19,3 km/h (3 Bft) 96 %
15.12.2019 18:28 6,3 C 81 % 1004,9 hPa 0,0 l/m 0 min 0 min 0,000 mm 0,0 UV-I 0 W/m 3,3 C 1,9 C 19,3 km/h (3 Bft) 94 %
15.12.2019 18:26 6,3 C 81 % 1004,9 hPa 0,0 l/m 0 min 0 min 0,000 mm 0,0 UV-I 0 W/m 3,3 C 0,9 C 20,9 km/h (4 Bft) 96 %
15.12.2019 18:24 6,4 C 81 % 1005,0 hPa 0,0 l/m 0 min 0 min 0,000 mm 0,0 UV-I 0 W/m 3,4 C 3,4 C 16,1 km/h (3 Bft) 92 %
15.12.2019 18:20 6,4 C 81 % 1005,0 hPa 0,0 l/m 0 min 0 min 0,000 mm 0,0 UV-I 0 W/m 3,4 C 1,5 C 20,9 km/h (4 Bft) 94 %
15.12.2019 18:18 6,4 C 80 % 1004,9 hPa 0,0 l/m 0 min 0 min 0,000 mm 0,0 UV-I 0 W/m 3,2 C 2,0 C 25,7 km/h (4 Bft) 96 %
15.12.2019 18:16 6,4 C 80 % 1004,9 hPa 0,0 l/m 0 min 0 min 0,000 mm 0,0 UV-I 0 W/m 3,2 C 2,8 C 19,3 km/h (3 Bft) 94 %
15.12.2019 18:14 6,4 C 80 % 1004,9 hPa 0,0 l/m 0 min 0 min 0,000 mm 0,0 UV-I 0 W/m 3,2 C 1,4 C 27,4 km/h (4 Bft) 93 %
15.12.2019 18:12 6,4 C 80 % 1004,9 hPa 0,0 l/m 0 min 0 min 0,000 mm 0,0 UV-I 0 W/m 3,2 C 0,9 C 24,1 km/h (4 Bft) 96 %
15.12.2019 18:10 6,5 C 80 % 1004,9 hPa 0,0 l/m 0 min 0 min 0,000 mm 0,0 UV-I 0 W/m 3,3 C 0,1 C 24,1 km/h (4 Bft) 96 %
15.12.2019 18:08 6,5 C 80 % 1004,9 hPa 0,0 l/m 0 min 0 min 0,000 mm 0,0 UV-I 0 W/m 3,3 C 1,1 C 24,1 km/h (4 Bft) 96 %
15.12.2019 18:06 6,5 C 80 % 1004,8 hPa 0,0 l/m 0 min 0 min 0,000 mm 0,0 UV-I 0 W/m 3,3 C 1,0 C 25,7 km/h (4 Bft) 98 %
15.12.2019 18:04 6,5 C 79 % 1004,7 hPa 0,0 l/m 0 min 0 min 0,026 mm 0,0 UV-I 0 W/m 3,1 C 2,2 C 22,5 km/h (4 Bft) 97 %
15.12.2019 18:00 6,6 C 79 % 1004,8 hPa 0,0 l/m 0 min 0 min 0,000 mm 0,0 UV-I 0 W/m 3,2 C 3,6 C 17,7 km/h (3 Bft) 98 %
15.12.2019 17:58 6,6 C 79 % 1004,7 hPa 0,0 l/m 0 min 0 min 0,000 mm 0,0 UV-I 0 W/m 3,2 C 2,5 C 17,7 km/h (3 Bft) 98 %
15.12.2019 17:56 6,7 C 79 % 1004,7 hPa 0,0 l/m 0 min 0 min 0,000 mm 0,0 UV-I 0 W/m 3,3 C 2,5 C 19,3 km/h (3 Bft) 98 %
15.12.2019 17:54 6,7 C 79 % 1004,7 hPa 0,0 l/m 0 min 0 min 0,000 mm 0,0 UV-I 0 W/m 3,3 C 2,8 C 24,1 km/h (4 Bft) 98 %
15.12.2019 17:52 6,7 C 79 % 1004,7 hPa 0,0 l/m 0 min 0 min 0,000 mm 0,0 UV-I 0 W/m 3,3 C 4,4 C 24,1 km/h (4 Bft) 98 %
15.12.2019 17:50 6,7 C 79 % 1004,6 hPa 0,0 l/m 0 min 0 min 0,000 mm 0,0 UV-I 0 W/m 3,3 C 1,5 C 24,1 km/h (4 Bft) 98 %
15.12.2019 17:48 6,7 C 79 % 1004,6 hPa 0,0 l/m 0 min 0 min 0,000 mm 0,0 UV-I 0 W/m 3,3 C 2,0 C 27,4 km/h (4 Bft) 96 %
15.12.2019 17:46 6,8 C 79 % 1004,6 hPa 0,0 l/m 0 min 0 min 0,000 mm 0,0 UV-I 0 W/m 3,4 C 4,0 C 17,7 km/h (3 Bft) 96 %
15.12.2019 17:44 6,8 C 79 % 1004,5 hPa 0,0 l/m 0 min 0 min 0,000 mm 0,0 UV-I 0 W/m 3,4 C 1,8 C 17,7 km/h (3 Bft) 98 %
15.12.2019 17:42 6,8 C 78 % 1004,5 hPa 0,0 l/m 0 min 0 min 0,000 mm 0,0 UV-I 0 W/m 3,2 C 2,3 C 22,5 km/h (4 Bft) 98 %
15.12.2019 17:40 6,8 C 79 % 1004,4 hPa 0,0 l/m 0 min 0 min 0,000 mm 0,0 UV-I 0 W/m 3,4 C 1,7 C 20,9 km/h (4 Bft) 96 %
15.12.2019 17:38 6,8 C 79 % 1004,4 hPa 0,0 l/m 0 min 0 min 0,000 mm 0,0 UV-I 0 W/m 3,4 C 2,1 C 20,9 km/h (4 Bft) 96 %
15.12.2019 17:36 6,8 C 79 % 1004,3 hPa 0,0 l/m 0 min 0 min 0,000 mm 0,0 UV-I 0 W/m 3,4 C 2,3 C 22,5 km/h (4 Bft) 96 %
15.12.2019 17:34 6,8 C 79 % 1004,3 hPa 0,0 l/m 0 min 0 min 0,000 mm 0,0 UV-I 0 W/m 3,4 C 2,3 C 19,3 km/h (3 Bft) 96 %
15.12.2019 17:32 6,8 C 79 % 1004,3 hPa 0,0 l/m 0 min 0 min 0,000 mm 0,0 UV-I 0 W/m 3,4 C 2,9 C 19,3 km/h (3 Bft) 96 %
15.12.2019 17:30 6,8 C 79 % 1004,3 hPa 0,0 l/m 0 min 0 min 0,000 mm 0,0 UV-I 0 W/m 3,4 C 4,3 C 16,1 km/h (3 Bft) 96 %
15.12.2019 17:28 6,9 C 79 % 1004,3 hPa 0,0 l/m 0 min 0 min 0,000 mm 0,0 UV-I 0 W/m 3,5 C 3,2 C 20,9 km/h (4 Bft) 96 %
15.12.2019 17:26 6,9 C 79 % 1004,2 hPa 0,0 l/m 0 min 0 min 0,000 mm 0,0 UV-I 0 W/m 3,5 C 4,6 C 12,9 km/h (3 Bft) 98 %
15.12.2019 17:24 6,9 C 79 % 1004,2 hPa 0,0 l/m 0 min 0 min 0,000 mm 0,0 UV-I 0 W/m 3,5 C 3,2 C 16,1 km/h (3 Bft) 96 %
15.12.2019 17:22 6,9 C 78 % 1004,1 hPa 0,0 l/m 0 min 0 min 0,000 mm 0,0 UV-I 0 W/m 3,3 C 4,2 C 16,1 km/h (3 Bft) 93 %
15.12.2019 17:20 6,9 C 79 % 1004,0 hPa 0,0 l/m 0 min 0 min 0,000 mm 0,0 UV-I 0 W/m 3,5 C 0,1 C 29,0 km/h (5 Bft) 96 %
15.12.2019 17:18 7,0 C 79 % 1004,2 hPa 0,0 l/m 0 min 0 min 0,000 mm 0,0 UV-I 0 W/m 3,6 C 3,4 C 22,5 km/h (4 Bft) 96 %
15.12.2019 17:16 7,0 C 79 % 1004,1 hPa 0,0 l/m 0 min 0 min 0,000 mm 0,0 UV-I 0 W/m 3,6 C 2,6 C 19,3 km/h (3 Bft) 96 %
15.12.2019 17:14 7,1 C 79 % 1004,2 hPa 0,0 l/m 0 min 0 min 0,000 mm 0,0 UV-I 0 W/m 3,7 C 3,3 C 20,9 km/h (4 Bft) 96 %
15.12.2019 17:12 7,1 C 79 % 1004,1 hPa 0,0 l/m 0 min 0 min 0,000 mm 0,0 UV-I 0 W/m 3,7 C 4,3 C 17,7 km/h (3 Bft) 92 %
15.12.2019 17:10 7,1 C 79 % 1004,1 hPa 0,0 l/m 0 min 0 min 0,000 mm 0,0 UV-I 0 W/m 3,7 C 2,6 C 22,5 km/h (4 Bft) 96 %
15.12.2019 17:08 7,0 C 79 % 1004,1 hPa 0,0 l/m 0 min 0 min 0,000 mm 0,0 UV-I 0 W/m 3,6 C 1,5 C 22,5 km/h (4 Bft) 94 %
15.12.2019 17:06 7,1 C 79 % 1004,1 hPa 0,0 l/m 0 min 0 min 0,000 mm 0,0 UV-I 0 W/m 3,7 C 3,4 C 17,7 km/h (3 Bft) 96 %
15.12.2019 17:04 7,1 C 79 % 1004,1 hPa 0,0 l/m 0 min 0 min 0,025 mm 0,0 UV-I 0 W/m 3,7 C 5,3 C 16,1 km/h (3 Bft) 97 %
15.12.2019 17:00 7,1 C 79 % 1004,1 hPa 0,0 l/m 0 min 0 min 0,000 mm 0,0 UV-I 0 W/m 3,7 C 4,1 C 27,4 km/h (4 Bft) 96 %
15.12.2019 16:58 7,1 C 79 % 1004,1 hPa 0,0 l/m 0 min 0 min 0,000 mm 0,0 UV-I 0 W/m 3,7 C 4,1 C 14,5 km/h (3 Bft) 94 %
15.12.2019 16:56 7,2 C 79 % 1004,2 hPa 0,0 l/m 0 min 0 min 0,000 mm 0,0 UV-I 0 W/m 3,8 C 5,0 C 19,3 km/h (3 Bft) 98 %
15.12.2019 16:54 7,2 C 79 % 1004,0 hPa 0,0 l/m 0 min 0 min 0,000 mm 0,0 UV-I 0 W/m 3,8 C 3,2 C 20,9 km/h (4 Bft) 100 %
15.12.2019 16:52 7,2 C 79 % 1004,1 hPa 0,0 l/m 0 min 0 min 0,000 mm 0,0 UV-I 0 W/m 3,8 C 4,5 C 17,7 km/h (3 Bft) 96 %
15.12.2019 16:50 7,2 C 79 % 1004,1 hPa 0,0 l/m 0 min 0 min 0,000 mm 0,0 UV-I 0 W/m 3,8 C 3,0 C 17,7 km/h (3 Bft) 91 %
15.12.2019 16:48 7,2 C 79 % 1004,0 hPa 0,0 l/m 0 min 0 min 0,000 mm 0,0 UV-I 0 W/m 3,8 C 4,0 C 19,3 km/h (3 Bft) 91 %
15.12.2019 16:46 7,2 C 79 % 1004,0 hPa 0,0 l/m 0 min 0 min 0,000 mm 0,0 UV-I 0 W/m 3,8 C 3,9 C 19,3 km/h (3 Bft) 93 %
15.12.2019 16:44 7,2 C 79 % 1003,9 hPa 0,0 l/m 0 min 0 min 0,000 mm 0,0 UV-I 0 W/m 3,8 C 5,5 C 14,5 km/h (3 Bft) 98 %
15.12.2019 16:42 7,3 C 79 % 1003,9 hPa 0,0 l/m 0 min 0 min 0,000 mm 0,0 UV-I 0 W/m 3,9 C 4,0 C 14,5 km/h (3 Bft) 96 %
15.12.2019 16:40 7,3 C 79 % 1003,9 hPa 0,0 l/m 0 min 0 min 0,000 mm 0,0 UV-I 1 W/m 3,9 C 2,1 C 22,5 km/h (4 Bft) 98 %
15.12.2019 16:38 7,3 C 79 % 1003,9 hPa 0,0 l/m 0 min 0 min 0,000 mm 0,0 UV-I 2 W/m 3,9 C 4,8 C 16,1 km/h (3 Bft) 96 %
15.12.2019 16:36 7,3 C 79 % 1003,9 hPa 0,0 l/m 0 min 0 min 0,000 mm 0,0 UV-I 2 W/m 3,9 C 2,8 C 19,3 km/h (3 Bft) 96 %
15.12.2019 16:34 7,3 C 79 % 1003,8 hPa 0,0 l/m 0 min 0 min 0,000 mm 0,0 UV-I 4 W/m 3,9 C 4,8 C 19,3 km/h (3 Bft) 96 %
15.12.2019 16:32 7,3 C 78 % 1003,8 hPa 0,0 l/m 0 min 0 min 0,000 mm 0,0 UV-I 4 W/m 3,7 C 3,5 C 17,7 km/h (3 Bft) 98 %
15.12.2019 16:30 7,4 C 78 % 1003,8 hPa 0,0 l/m 0 min 0 min 0,000 mm 0,0 UV-I 6 W/m 3,8 C 3,2 C 20,9 km/h (4 Bft) 98 %
15.12.2019 16:28 7,4 C 78 % 1003,8 hPa 0,0 l/m 0 min 0 min 0,000 mm 0,0 UV-I 6 W/m 3,8 C 3,6 C 17,7 km/h (3 Bft) 98 %
15.12.2019 16:26 7,4 C 78 % 1003,7 hPa 0,0 l/m 0 min 0 min 0,000 mm 0,0 UV-I 7 W/m 3,8 C 3,2 C 17,7 km/h (3 Bft) 98 %
15.12.2019 16:24 7,4 C 78 % 1003,6 hPa 0,0 l/m 0 min 0 min 0,000 mm 0,0 UV-I 8 W/m 3,8 C 5,3 C 17,7 km/h (3 Bft) 98 %
15.12.2019 16:22 7,4 C 78 % 1003,5 hPa 0,0 l/m 0 min 0 min 0,000 mm 0,0 UV-I 9 W/m 3,8 C 6,1 C 16,1 km/h (3 Bft) 98 %
15.12.2019 16:20 7,4 C 78 % 1003,5 hPa 0,0 l/m 0 min 0 min 0,000 mm 0,0 UV-I 10 W/m 3,8 C 5,0 C 16,1 km/h (3 Bft) 96 %
15.12.2019 16:18 7,5 C 78 % 1003,5 hPa 0,0 l/m 0 min 0 min 0,000 mm 0,0 UV-I 11 W/m 3,9 C 4,2 C 19,3 km/h (3 Bft) 100 %
15.12.2019 16:16 7,5 C 78 % 1003,5 hPa 0,0 l/m 0 min 0 min 0,000 mm 0,0 UV-I 12 W/m 3,9 C 4,8 C 17,7 km/h (3 Bft) 96 %
15.12.2019 16:14 7,5 C 78 % 1003,4 hPa 0,0 l/m 0 min 0 min 0,000 mm 0,0 UV-I 13 W/m 3,9 C 2,2 C 27,4 km/h (4 Bft) 98 %
15.12.2019 16:12 7,5 C 78 % 1003,4 hPa 0,0 l/m 0 min 0 min 0,000 mm 0,0 UV-I 14 W/m 3,9 C 3,5 C 22,5 km/h (4 Bft) 94 %
15.12.2019 16:10 7,5 C 78 % 1003,4 hPa 0,0 l/m 0 min 0 min 0,000 mm 0,0 UV-I 15 W/m 3,9 C 2,9 C 24,1 km/h (4 Bft) 98 %
15.12.2019 16:08 7,5 C 78 % 1003,4 hPa 0,0 l/m 0 min 0 min 0,000 mm 0,0 UV-I 17 W/m 3,9 C 4,1 C 19,3 km/h (3 Bft) 96 %
15.12.2019 16:06 7,5 C 78 % 1003,4 hPa 0,0 l/m 0 min 0 min 0,000 mm 0,0 UV-I 19 W/m 3,9 C 4,5 C 22,5 km/h (4 Bft) 100 %
15.12.2019 16:04 7,6 C 78 % 1003,4 hPa 0,0 l/m 0 min 0 min 0,051 mm 0,0 UV-I 21 W/m 4,0 C 4,7 C 20,9 km/h (4 Bft) 97 %
15.12.2019 16:00 7,6 C 78 % 1003,3 hPa 0,0 l/m 0 min 0 min 0,000 mm 0,0 UV-I 22 W/m 4,0 C 7,0 C 14,5 km/h (3 Bft) 93 %
15.12.2019 15:58 7,6 C 78 % 1003,3 hPa 0,0 l/m 0 min 0 min 0,000 mm 0,0 UV-I 24 W/m 4,0 C 5,5 C 14,5 km/h (3 Bft) 96 %
15.12.2019 15:56 7,7 C 78 % 1003,3 hPa 0,0 l/m 0 min 0 min 0,000 mm 0,0 UV-I 27 W/m 4,1 C 4,3 C 24,1 km/h (4 Bft) 98 %
15.12.2019 15:54 7,7 C 78 % 1003,3 hPa 0,0 l/m 0 min 0 min 0,000 mm 0,0 UV-I 30 W/m 4,1 C 6,1 C 14,5 km/h (3 Bft) 98 %
15.12.2019 15:52 7,7 C 78 % 1003,2 hPa 0,0 l/m 0 min 0 min 0,000 mm 0,0 UV-I 32 W/m 4,1 C 4,4 C 19,3 km/h (3 Bft) 96 %
15.12.2019 15:50 7,7 C 78 % 1003,2 hPa 0,0 l/m 0 min 0 min 0,000 mm 0,0 UV-I 34 W/m 4,1 C 3,9 C 20,9 km/h (4 Bft) 89 %
15.12.2019 15:48 7,7 C 78 % 1003,1 hPa 0,0 l/m 0 min 0 min 0,000 mm 0,0 UV-I 35 W/m 4,1 C 3,2 C 24,1 km/h (4 Bft) 96 %
15.12.2019 15:46 7,7 C 78 % 1003,1 hPa 0,0 l/m 0 min 0 min 0,000 mm 0,0 UV-I 36 W/m 4,1 C 3,3 C 19,3 km/h (3 Bft) 98 %
15.12.2019 15:44 7,8 C 78 % 1003,1 hPa 0,0 l/m 0 min 0 min 0,000 mm 0,0 UV-I 39 W/m 4,2 C 4,7 C 16,1 km/h (3 Bft) 94 %
15.12.2019 15:42 7,8 C 78 % 1003,0 hPa 0,0 l/m 0 min 0 min 0,000 mm 0,0 UV-I 42 W/m 4,2 C 5,8 C 16,1 km/h (3 Bft) 98 %
15.12.2019 15:40 7,8 C 78 % 1003,0 hPa 0,0 l/m 0 min 0 min 0,000 mm 0,3 UV-I 43 W/m 4,2 C 5,4 C 22,5 km/h (4 Bft) 100 %
15.12.2019 15:38 7,8 C 78 % 1003,0 hPa 0,0 l/m 0 min 0 min 0,000 mm 0,6 UV-I 45 W/m 4,2 C 3,2 C 24,1 km/h (4 Bft) 100 %
15.12.2019 15:36 7,8 C 78 % 1002,9 hPa 0,0 l/m 0 min 0 min 0,000 mm 0,6 UV-I 48 W/m 4,2 C 4,5 C 22,5 km/h (4 Bft) 100 %
15.12.2019 15:34 7,9 C 77 % 1002,9 hPa 0,0 l/m 0 min 0 min 0,000 mm 0,6 UV-I 52 W/m 4,1 C 4,5 C 20,9 km/h (4 Bft) 98 %
15.12.2019 15:32 7,9 C 77 % 1002,9 hPa 0,0 l/m 0 min 0 min 0,000 mm 0,6 UV-I 55 W/m 4,1 C 3,9 C 22,5 km/h (4 Bft) 98 %
15.12.2019 15:30 7,9 C 77 % 1002,9 hPa 0,0 l/m 0 min 0 min 0,000 mm 0,6 UV-I 57 W/m 4,1 C 3,5 C 25,7 km/h (4 Bft) 100 %
15.12.2019 15:28 7,9 C 77 % 1002,9 hPa 0,0 l/m 0 min 0 min 0,000 mm 0,6 UV-I 58 W/m 4,1 C 6,6 C 14,5 km/h (3 Bft) 98 %
15.12.2019 15:26 7,9 C 77 % 1002,8 hPa 0,0 l/m 0 min 0 min 0,000 mm 0,6 UV-I 61 W/m 4,1 C 2,6 C 30,6 km/h (5 Bft) 96 %
15.12.2019 15:24 7,9 C 77 % 1002,8 hPa 0,0 l/m 0 min 0 min 0,000 mm 0,6 UV-I 66 W/m 4,1 C 3,3 C 25,7 km/h (4 Bft) 100 %
15.12.2019 15:22 7,9 C 77 % 1002,7 hPa 0,0 l/m 0 min 0 min 0,000 mm 0,7 UV-I 69 W/m 4,1 C 4,5 C 20,9 km/h (4 Bft) 100 %
15.12.2019 15:20 7,9 C 77 % 1002,7 hPa 0,0 l/m 0 min 0 min 0,000 mm 0,7 UV-I 69 W/m 4,1 C 3,1 C 20,9 km/h (4 Bft) 100 %
15.12.2019 15:18 8,0 C 77 % 1002,6 hPa 0,0 l/m 0 min 0 min 0,000 mm 0,7 UV-I 70 W/m 4,2 C 2,8 C 27,4 km/h (4 Bft) 98 %
15.12.2019 15:16 8,0 C 77 % 1002,6 hPa 0,0 l/m 0 min 0 min 0,000 mm 0,7 UV-I 73 W/m 4,2 C 3,3 C 30,6 km/h (5 Bft) 100 %
15.12.2019 15:14 8,0 C 77 % 1002,6 hPa 0,0 l/m 0 min 0 min 0,000 mm 0,7 UV-I 76 W/m 4,2 C 3,0 C 29,0 km/h (5 Bft) 98 %
15.12.2019 15:12 8,0 C 77 % 1002,5 hPa 0,0 l/m 0 min 0 min 0,000 mm 0,7 UV-I 78 W/m 4,2 C 2,7 C 30,6 km/h (5 Bft) 98 %
15.12.2019 15:10 8,1 C 77 % 1002,4 hPa 0,0 l/m 0 min 0 min 0,000 mm 0,7 UV-I 81 W/m 4,3 C 2,2 C 29,0 km/h (5 Bft) 98 %
15.12.2019 15:08 8,1 C 77 % 1002,4 hPa 0,0 l/m 0 min 0 min 0,000 mm 0,7 UV-I 84 W/m 4,3 C 3,6 C 24,1 km/h (4 Bft) 98 %
15.12.2019 15:06 8,1 C 77 % 1002,3 hPa 0,0 l/m 0 min 0 min 0,000 mm 0,7 UV-I 87 W/m 4,3 C 3,2 C 22,5 km/h (4 Bft) 100 %
15.12.2019 15:04 8,1 C 77 % 1002,2 hPa 0,0 l/m 0 min 0 min 0,076 mm 0,7 UV-I 89 W/m 4,3 C 1,9 C 38,6 km/h (5 Bft) 99 %
15.12.2019 15:00 8,1 C 77 % 1002,2 hPa 0,0 l/m 0 min 0 min 0,000 mm 0,7 UV-I 92 W/m 4,3 C 2,7 C 22,5 km/h (4 Bft) 98 %
15.12.2019 14:58 8,1 C 77 % 1002,2 hPa 0,0 l/m 2 min 0 min 0,000 mm 0,7 UV-I 97 W/m 4,3 C 1,9 C 38,6 km/h (5 Bft) 98 %
15.12.2019 14:56 8,1 C 77 % 1002,1 hPa 0,0 l/m 2 min 0 min 0,000 mm 0,7 UV-I 106 W/m 4,3 C 1,0 C 33,8 km/h (5 Bft) 98 %
15.12.2019 14:54 8,1 C 77 % 1002,2 hPa 0,0 l/m 2 min 0 min 0,000 mm 0,7 UV-I 113 W/m 4,3 C 2,3 C 22,5 km/h (4 Bft) 96 %
15.12.2019 14:52 8,1 C 77 % 1002,1 hPa 0,0 l/m 2 min 0 min 0,000 mm 0,7 UV-I 114 W/m 4,3 C 4,4 C 20,9 km/h (4 Bft) 98 %
15.12.2019 14:50 8,1 C 77 % 1002,1 hPa 0,0 l/m 2 min 0 min 0,000 mm 0,7 UV-I 115 W/m 4,3 C 4,0 C 19,3 km/h (3 Bft) 96 %
15.12.2019 14:48 8,1 C 77 % 1002,2 hPa 0,0 l/m 2 min 0 min 0,000 mm 0,8 UV-I 122 W/m 4,3 C 3,6 C 24,1 km/h (4 Bft) 98 %
15.12.2019 14:46 8,1 C 77 % 1002,1 hPa 0,0 l/m 2 min 0 min 0,000 mm 0,8 UV-I 121 W/m 4,3 C 4,9 C 19,3 km/h (3 Bft) 96 %
15.12.2019 14:44 8,1 C 77 % 1002,1 hPa 0,0 l/m 2 min 0 min 0,000 mm 0,8 UV-I 119 W/m 4,3 C 3,1 C 24,1 km/h (4 Bft) 98 %
15.12.2019 14:42 8,1 C 77 % 1002,2 hPa 0,0 l/m 2 min 0 min 0,000 mm 0,8 UV-I 118 W/m 4,3 C 3,8 C 25,7 km/h (4 Bft) 98 %
15.12.2019 14:40 8,1 C 77 % 1002,1 hPa 0,0 l/m 2 min 0 min 0,000 mm 0,8 UV-I 118 W/m 4,3 C 4,3 C 20,9 km/h (4 Bft) 91 %
15.12.2019 14:38 8,1 C 77 % 1002,1 hPa 0,0 l/m 2 min 0 min 0,000 mm 0,8 UV-I 120 W/m 4,3 C 2,7 C 25,7 km/h (4 Bft) 96 %
15.12.2019 14:36 8,1 C 77 % 1002,2 hPa 0,0 l/m 2 min 0 min 0,000 mm 0,8 UV-I 118 W/m 4,3 C 4,6 C 16,1 km/h (3 Bft) 94 %
15.12.2019 14:34 8,1 C 77 % 1002,2 hPa 0,0 l/m 0 min 0 min 0,000 mm 0,8 UV-I 114 W/m 4,3 C 2,3 C 20,9 km/h (4 Bft) 96 %
15.12.2019 14:32 8,1 C 77 % 1002,2 hPa 0,0 l/m 0 min 0 min 0,000 mm 0,8 UV-I 113 W/m 4,3 C 5,1 C 16,1 km/h (3 Bft) 94 %
15.12.2019 14:30 8,1 C 77 % 1002,2 hPa 0,0 l/m 0 min 0 min 0,000 mm 0,8 UV-I 115 W/m 4,3 C 4,9 C 20,9 km/h (4 Bft) 91 %
15.12.2019 14:28 8,1 C 77 % 1002,2 hPa 0,0 l/m 0 min 0 min 0,000 mm 0,8 UV-I 113 W/m 4,3 C 2,7 C 30,6 km/h (5 Bft) 98 %
15.12.2019 14:26 8,2 C 77 % 1002,1 hPa 0,0 l/m 0 min 0 min 0,000 mm 0,8 UV-I 114 W/m 4,4 C 4,1 C 25,7 km/h (4 Bft) 98 %
15.12.2019 14:24 8,2 C 77 % 1002,1 hPa 0,0 l/m 0 min 0 min 0,000 mm 0,8 UV-I 113 W/m 4,4 C 2,9 C 30,6 km/h (5 Bft) 96 %
15.12.2019 14:22 8,2 C 78 % 1002,1 hPa 0,0 l/m 0 min 0 min 0,000 mm 0,8 UV-I 109 W/m 4,6 C 2,7 C 25,7 km/h (4 Bft) 98 %
15.12.2019 14:20 8,2 C 78 % 1002,1 hPa 0,0 l/m 0 min 0 min 0,000 mm 0,8 UV-I 110 W/m 4,6 C 5,4 C 20,9 km/h (4 Bft) 98 %
15.12.2019 14:18 8,2 C 78 % 1002,0 hPa 0,0 l/m 0 min 0 min 0,000 mm 0,8 UV-I 111 W/m 4,6 C 3,3 C 20,9 km/h (4 Bft) 96 %
15.12.2019 14:16 8,3 C 78 % 1001,9 hPa 0,0 l/m 0 min 0 min 0,000 mm 0,8 UV-I 111 W/m 4,7 C 3,6 C 24,1 km/h (4 Bft) 98 %
15.12.2019 14:14 8,3 C 78 % 1001,9 hPa 0,0 l/m 0 min 0 min 0,000 mm 0,8 UV-I 113 W/m 4,7 C 5,4 C 25,7 km/h (4 Bft) 100 %
15.12.2019 14:12 8,3 C 78 % 1001,8 hPa 0,0 l/m 0 min 0 min 0,000 mm 0,9 UV-I 117 W/m 4,7 C 3,5 C 27,4 km/h (4 Bft) 100 %
15.12.2019 14:10 8,4 C 78 % 1001,9 hPa 0,0 l/m 0 min 0 min 0,000 mm 0,9 UV-I 117 W/m 4,8 C 5,6 C 19,3 km/h (3 Bft) 100 %
15.12.2019 14:08 8,4 C 77 % 1001,9 hPa 0,0 l/m 0 min 0 min 0,000 mm 0,9 UV-I 107 W/m 4,6 C 3,4 C 24,1 km/h (4 Bft) 100 %
15.12.2019 14:06 8,4 C 77 % 1001,8 hPa 0,0 l/m 0 min 0 min 0,000 mm 0,9 UV-I 105 W/m 4,6 C 2,0 C 29,0 km/h (5 Bft) 100 %
15.12.2019 14:04 8,4 C 77 % 1001,8 hPa 0,0 l/m 0 min 0 min 0,127 mm 0,9 UV-I 102 W/m 4,6 C 3,6 C 22,5 km/h (4 Bft) 99 %
15.12.2019 14:00 8,5 C 76 % 1001,9 hPa 0,0 l/m 0 min 0 min 0,000 mm 0,9 UV-I 99 W/m 4,5 C 3,1 C 24,1 km/h (4 Bft) 100 %
15.12.2019 13:58 8,6 C 76 % 1001,9 hPa 0,0 l/m 0 min 0 min 0,000 mm 0,9 UV-I 91 W/m 4,6 C 4,4 C 20,9 km/h (4 Bft) 100 %
15.12.2019 13:56 8,6 C 76 % 1001,9 hPa 0,0 l/m 0 min 0 min 0,000 mm 0,9 UV-I 82 W/m 4,6 C 4,9 C 19,3 km/h (3 Bft) 98 %
15.12.2019 13:54 8,7 C 76 % 1001,9 hPa 0,0 l/m 0 min 0 min 0,000 mm 0,9 UV-I 83 W/m 4,7 C 6,5 C 17,7 km/h (3 Bft) 100 %
15.12.2019 13:52 8,7 C 75 % 1001,8 hPa 0,0 l/m 0 min 0 min 0,000 mm 0,9 UV-I 86 W/m 4,5 C 4,2 C 22,5 km/h (4 Bft) 96 %
15.12.2019 13:50 8,7 C 75 % 1001,8 hPa 0,0 l/m 0 min 0 min 0,000 mm 0,9 UV-I 93 W/m 4,5 C 3,6 C 29,0 km/h (5 Bft) 100 %
15.12.2019 13:48 8,8 C 75 % 1001,8 hPa 0,0 l/m 0 min 0 min 0,000 mm 0,9 UV-I 95 W/m 4,6 C 4,0 C 24,1 km/h (4 Bft) 100 %
15.12.2019 13:46 8,8 C 75 % 1001,7 hPa 0,0 l/m 0 min 0 min 0,000 mm 0,9 UV-I 101 W/m 4,6 C 4,4 C 22,5 km/h (4 Bft) 100 %
15.12.2019 13:44 8,8 C 75 % 1001,7 hPa 0,0 l/m 0 min 0 min 0,000 mm 0,9 UV-I 117 W/m 4,6 C 4,5 C 22,5 km/h (4 Bft) 100 %
15.12.2019 13:42 8,9 C 75 % 1001,8 hPa 0,0 l/m 0 min 0 min 0,000 mm 1,0 UV-I 107 W/m 4,7 C 6,4 C 16,1 km/h (3 Bft) 98 %
15.12.2019 13:40 9,0 C 75 % 1001,7 hPa 0,0 l/m 0 min 0 min 0,000 mm 1,0 UV-I 94 W/m 4,8 C 3,1 C 32,2 km/h (5 Bft) 100 %
15.12.2019 13:38 9,1 C 75 % 1001,7 hPa 0,0 l/m 0 min 0 min 0,000 mm 1,0 UV-I 99 W/m 4,9 C 4,6 C 25,7 km/h (4 Bft) 100 %
15.12.2019 13:36 9,2 C 74 % 1001,6 hPa 0,0 l/m 0 min 0 min 0,000 mm 1,0 UV-I 105 W/m 4,8 C 3,8 C 25,7 km/h (4 Bft) 100 %
15.12.2019 13:34 9,3 C 75 % 1001,6 hPa 0,0 l/m 0 min 0 min 0,000 mm 1,0 UV-I 136 W/m 5,1 C 4,4 C 25,7 km/h (4 Bft) 100 %
15.12.2019 13:32 9,4 C 75 % 1001,5 hPa 0,0 l/m 2 min 0 min 0,000 mm 1,0 UV-I 191 W/m 5,2 C 5,7 C 25,7 km/h (4 Bft) 100 %
15.12.2019 13:30 9,5 C 75 % 1001,5 hPa 0,0 l/m 2 min 0 min 0,000 mm 1,1 UV-I 269 W/m 5,3 C 6,9 C 17,7 km/h (3 Bft) 98 %
15.12.2019 13:28 9,4 C 76 % 1001,6 hPa 0,0 l/m 2 min 0 min 0,000 mm 1,1 UV-I 298 W/m 5,4 C 6,4 C 19,3 km/h (3 Bft) 98 %
15.12.2019 13:26 9,4 C 76 % 1001,5 hPa 0,0 l/m 2 min 0 min 0,000 mm 1,1 UV-I 303 W/m 5,4 C 6,8 C 20,9 km/h (4 Bft) 98 %
15.12.2019 13:24 9,4 C 75 % 1001,4 hPa 0,0 l/m 2 min 0 min 0,000 mm 1,1 UV-I 249 W/m 5,2 C 5,9 C 22,5 km/h (4 Bft) 98 %
15.12.2019 13:22 9,4 C 76 % 1001,4 hPa 0,0 l/m 2 min 0 min 0,000 mm 1,1 UV-I 303 W/m 5,4 C 5,1 C 24,1 km/h (4 Bft) 98 %
15.12.2019 13:20 9,3 C 76 % 1001,4 hPa 0,0 l/m 2 min 0 min 0,000 mm 1,1 UV-I 310 W/m 5,3 C 6,9 C 17,7 km/h (3 Bft) 94 %
15.12.2019 13:18 9,3 C 76 % 1001,5 hPa 0,0 l/m 2 min 0 min 0,000 mm 1,1 UV-I 311 W/m 5,3 C 3,9 C 32,2 km/h (5 Bft) 96 %
15.12.2019 13:16 9,2 C 76 % 1001,3 hPa 0,0 l/m 2 min 0 min 0,000 mm 1,1 UV-I 292 W/m 5,2 C 7,1 C 16,1 km/h (3 Bft) 98 %
15.12.2019 13:14 9,2 C 76 % 1001,2 hPa 0,0 l/m 2 min 0 min 0,000 mm 1,1 UV-I 227 W/m 5,2 C 4,6 C 20,9 km/h (4 Bft) 96 %
15.12.2019 13:12 9,2 C 76 % 1001,2 hPa 0,0 l/m 2 min 0 min 0,000 mm 1,1 UV-I 307 W/m 5,2 C 6,0 C 30,6 km/h (5 Bft) 94 %
15.12.2019 13:10 9,1 C 76 % 1001,3 hPa 0,0 l/m 2 min 0 min 0,000 mm 1,1 UV-I 318 W/m 5,1 C 5,5 C 25,7 km/h (4 Bft) 96 %
15.12.2019 13:08 9,1 C 77 % 1001,3 hPa 0,0 l/m 2 min 0 min 0,000 mm 1,1 UV-I 280 W/m 5,3 C 7,2 C 12,9 km/h (3 Bft) 93 %
15.12.2019 13:06 9,1 C 77 % 1001,2 hPa 0,0 l/m 2 min 0 min 0,000 mm 1,1 UV-I 288 W/m 5,3 C 5,9 C 17,7 km/h (3 Bft) 95 %
15.12.2019 13:04 9,0 C 77 % 1001,2 hPa 0,0 l/m 2 min 0 min 0,127 mm 1,1 UV-I 249 W/m 5,2 C 5,3 C 24,1 km/h (4 Bft) 94 %
15.12.2019 13:00 8,9 C 78 % 1001,2 hPa 0,0 l/m 2 min 0 min 0,000 mm 1,1 UV-I 286 W/m 5,3 C 6,8 C 20,9 km/h (4 Bft) 91 %
15.12.2019 12:58 8,8 C 78 % 1001,1 hPa 0,0 l/m 2 min 0 min 0,000 mm 1,1 UV-I 314 W/m 5,2 C 4,7 C 25,7 km/h (4 Bft) 94 %
15.12.2019 12:56 8,8 C 78 % 1001,1 hPa 0,0 l/m 2 min 0 min 0,000 mm 1,1 UV-I 279 W/m 5,2 C 3,8 C 20,9 km/h (4 Bft) 94 %
15.12.2019 12:54 8,8 C 78 % 1001,2 hPa 0,0 l/m 2 min 0 min 0,000 mm 1,1 UV-I 201 W/m 5,2 C 3,8 C 27,4 km/h (4 Bft) 89 %
15.12.2019 12:52 8,8 C 78 % 1001,2 hPa 0,0 l/m 2 min 0 min 0,000 mm 1,0 UV-I 194 W/m 5,2 C 3,5 C 30,6 km/h (5 Bft) 93 %
15.12.2019 12:50 8,8 C 78 % 1001,1 hPa 0,0 l/m 2 min 0 min 0,000 mm 1,0 UV-I 182 W/m 5,2 C 4,4 C 22,5 km/h (4 Bft) 96 %
15.12.2019 12:48 8,8 C 79 % 1001,2 hPa 0,0 l/m 2 min 0 min 0,000 mm 1,0 UV-I 173 W/m 5,4 C 4,1 C 29,0 km/h (5 Bft) 94 %
15.12.2019 12:46 8,8 C 79 % 1001,1 hPa 0,0 l/m 2 min 0 min 0,000 mm 1,0 UV-I 193 W/m 5,4 C 5,4 C 17,7 km/h (3 Bft) 89 %
15.12.2019 12:44 8,8 C 79 % 1001,1 hPa 0,0 l/m 2 min 0 min 0,000 mm 1,1 UV-I 219 W/m 5,4 C 4,6 C 27,4 km/h (4 Bft) 96 %
15.12.2019 12:42 8,8 C 79 % 1001,2 hPa 0,0 l/m 2 min 0 min 0,000 mm 1,0 UV-I 185 W/m 5,4 C 6,4 C 22,5 km/h (4 Bft) 96 %
15.12.2019 12:40 8,8 C 80 % 1001,2 hPa 0,0 l/m 2 min 0 min 0,000 mm 1,1 UV-I 228 W/m 5,5 C 6,9 C 16,1 km/h (3 Bft) 93 %
15.12.2019 12:38 8,7 C 80 % 1001,2 hPa 0,0 l/m 2 min 0 min 0,000 mm 1,1 UV-I 216 W/m 5,4 C 5,2 C 24,1 km/h (4 Bft) 96 %
15.12.2019 12:36 8,7 C 79 % 1001,2 hPa 0,0 l/m 2 min 0 min 0,000 mm 1,0 UV-I 189 W/m 5,3 C 4,7 C 20,9 km/h (4 Bft) 96 %
15.12.2019 12:34 8,7 C 79 % 1001,1 hPa 0,0 l/m 2 min 0 min 0,000 mm 1,1 UV-I 226 W/m 5,3 C 5,6 C 22,5 km/h (4 Bft) 96 %
15.12.2019 12:32 8,7 C 80 % 1001,0 hPa 0,0 l/m 2 min 0 min 0,000 mm 1,1 UV-I 218 W/m 5,4 C 5,8 C 20,9 km/h (4 Bft) 96 %
15.12.2019 12:30 8,7 C 80 % 1001,1 hPa 0,0 l/m 2 min 0 min 0,000 mm 1,1 UV-I 220 W/m 5,4 C 6,0 C 20,9 km/h (4 Bft) 98 %
15.12.2019 12:28 8,7 C 80 % 1001,0 hPa 0,0 l/m 2 min 0 min 0,000 mm 1,1 UV-I 207 W/m 5,4 C 7,9 C 19,3 km/h (3 Bft) 98 %
15.12.2019 12:26 8,7 C 80 % 1000,9 hPa 0,0 l/m 2 min 0 min 0,000 mm 1,1 UV-I 187 W/m 5,4 C 4,4 C 22,5 km/h (4 Bft) 98 %
15.12.2019 12:24 8,7 C 80 % 1000,9 hPa 0,0 l/m 0 min 0 min 0,000 mm 1,0 UV-I 172 W/m 5,4 C 4,3 C 29,0 km/h (5 Bft) 96 %
15.12.2019 12:20 8,7 C 80 % 1000,9 hPa 0,0 l/m 2 min 0 min 0,000 mm 1,0 UV-I 193 W/m 5,4 C 4,2 C 22,5 km/h (4 Bft) 98 %
15.12.2019 12:18 8,7 C 80 % 1000,8 hPa 0,0 l/m 2 min 0 min 0,000 mm 1,0 UV-I 185 W/m 5,4 C 6,0 C 20,9 km/h (4 Bft) 98 %
15.12.2019 12:16 8,7 C 80 % 1000,8 hPa 0,0 l/m 0 min 0 min 0,000 mm 1,0 UV-I 168 W/m 5,4 C 5,4 C 22,5 km/h (4 Bft) 98 %
15.12.2019 12:14 8,8 C 80 % 1000,9 hPa 0,0 l/m 2 min 0 min 0,000 mm 1,0 UV-I 178 W/m 5,5 C 5,8 C 22,5 km/h (4 Bft) 98 %
15.12.2019 12:12 8,8 C 79 % 1000,8 hPa 0,0 l/m 2 min 0 min 0,000 mm 1,0 UV-I 182 W/m 5,4 C 3,6 C 27,4 km/h (4 Bft) 98 %
15.12.2019 12:10 8,8 C 80 % 1000,9 hPa 0,0 l/m 0 min 0 min 0,000 mm 1,0 UV-I 151 W/m 5,5 C 5,1 C 20,9 km/h (4 Bft) 100 %
15.12.2019 12:08 8,9 C 79 % 1000,8 hPa 0,0 l/m 0 min 0 min 0,000 mm 1,0 UV-I 150 W/m 5,5 C 7,7 C 19,3 km/h (3 Bft) 100 %
15.12.2019 12:06 8,9 C 79 % 1000,8 hPa 0,0 l/m 2 min 0 min 0,000 mm 1,0 UV-I 212 W/m 5,5 C 7,0 C 14,5 km/h (3 Bft) 100 %
15.12.2019 12:04 8,9 C 79 % 1000,7 hPa 0,0 l/m 2 min 0 min 0,127 mm 1,0 UV-I 208 W/m 5,5 C 3,6 C 32,2 km/h (5 Bft) 100 %
15.12.2019 12:00 8,9 C 79 % 1000,7 hPa 0,0 l/m 2 min 0 min 0,000 mm 1,1 UV-I 297 W/m 5,5 C 1,9 C 32,2 km/h (5 Bft) 96 %
15.12.2019 11:58 8,9 C 79 % 1000,6 hPa 0,0 l/m 2 min 0 min 0,000 mm 1,1 UV-I 312 W/m 5,5 C 3,0 C 32,2 km/h (5 Bft) 94 %
15.12.2019 11:56 8,9 C 80 % 1000,6 hPa 0,0 l/m 2 min 0 min 0,000 mm 1,1 UV-I 319 W/m 5,6 C 3,0 C 27,4 km/h (4 Bft) 100 %
15.12.2019 11:54 8,8 C 79 % 1000,6 hPa 0,0 l/m 2 min 0 min 0,000 mm 1,1 UV-I 241 W/m 5,4 C 4,4 C 27,4 km/h (4 Bft) 100 %
15.12.2019 11:52 8,8 C 79 % 1000,5 hPa 0,0 l/m 2 min 0 min 0,000 mm 1,1 UV-I 230 W/m 5,4 C 4,0 C 22,5 km/h (4 Bft) 98 %
15.12.2019 11:50 8,8 C 80 % 1000,5 hPa 0,0 l/m 2 min 0 min 0,000 mm 1,1 UV-I 263 W/m 5,5 C 4,1 C 24,1 km/h (4 Bft) 98 %
15.12.2019 11:48 8,8 C 80 % 1000,5 hPa 0,0 l/m 2 min 0 min 0,000 mm 1,0 UV-I 228 W/m 5,5 C 5,0 C 24,1 km/h (4 Bft) 98 %
15.12.2019 11:46 8,8 C 80 % 1000,4 hPa 0,0 l/m 2 min 0 min 0,000 mm 1,0 UV-I 185 W/m 5,5 C 3,5 C 25,7 km/h (4 Bft) 98 %
15.12.2019 11:44 8,8 C 80 % 1000,4 hPa 0,0 l/m 2 min 0 min 0,000 mm 1,0 UV-I 200 W/m 5,5 C 8,8 C 19,3 km/h (3 Bft) 96 %
15.12.2019 11:42 8,8 C 81 % 1000,4 hPa 0,0 l/m 2 min 0 min 0,000 mm 1,0 UV-I 248 W/m 5,7 C 6,8 C 19,3 km/h (3 Bft) 96 %
15.12.2019 11:40 8,7 C 81 % 1000,4 hPa 0,0 l/m 2 min 0 min 0,000 mm 1,0 UV-I 271 W/m 5,6 C 3,6 C 33,8 km/h (5 Bft) 91 %
15.12.2019 11:38 8,7 C 81 % 1000,3 hPa 0,0 l/m 2 min 0 min 0,000 mm 1,0 UV-I 242 W/m 5,6 C 4,3 C 24,1 km/h (4 Bft) 89 %
15.12.2019 11:36 8,7 C 81 % 1000,3 hPa 0,0 l/m 2 min 0 min 0,000 mm 1,0 UV-I 173 W/m 5,6 C 5,0 C 25,7 km/h (4 Bft) 96 %
15.12.2019 11:34 8,7 C 82 % 1000,3 hPa 0,0 l/m 2 min 0 min 0,000 mm 1,0 UV-I 295 W/m 5,8 C 5,9 C 19,3 km/h (3 Bft) 98 %
15.12.2019 11:32 8,7 C 81 % 1000,3 hPa 0,0 l/m 0 min 0 min 0,000 mm 1,0 UV-I 150 W/m 5,6 C 5,0 C 19,3 km/h (3 Bft) 94 %
15.12.2019 11:30 8,7 C 81 % 1000,3 hPa 0,0 l/m 2 min 0 min 0,000 mm 1,0 UV-I 167 W/m 5,6 C 3,3 C 25,7 km/h (4 Bft) 98 %
15.12.2019 11:28 8,7 C 82 % 1000,4 hPa 0,0 l/m 2 min 0 min 0,000 mm 1,0 UV-I 240 W/m 5,8 C 3,0 C 27,4 km/h (4 Bft) 96 %
15.12.2019 11:26 8,7 C 81 % 1000,3 hPa 0,0 l/m 2 min 0 min 0,000 mm 1,0 UV-I 250 W/m 5,6 C 4,9 C 22,5 km/h (4 Bft) 96 %
15.12.2019 11:24 8,7 C 82 % 1000,4 hPa 0,0 l/m 2 min 0 min 0,000 mm 1,0 UV-I 253 W/m 5,8 C 2,2 C 30,6 km/h (5 Bft) 98 %
15.12.2019 11:22 8,7 C 82 % 1000,4 hPa 0,0 l/m 2 min 0 min 0,000 mm 1,0 UV-I 258 W/m 5,8 C 4,3 C 24,1 km/h (4 Bft) 98 %
15.12.2019 11:20 8,7 C 82 % 1000,4 hPa 0,0 l/m 2 min 0 min 0,000 mm 1,0 UV-I 168 W/m 5,8 C 3,9 C 24,1 km/h (4 Bft) 96 %
15.12.2019 11:18 8,7 C 81 % 1000,4 hPa 0,0 l/m 2 min 0 min 0,000 mm 1,0 UV-I 197 W/m 5,6 C 6,3 C 24,1 km/h (4 Bft) 100 %
15.12.2019 11:16 8,7 C 81 % 1000,3 hPa 0,0 l/m 2 min 0 min 0,000 mm 1,0 UV-I 224 W/m 5,6 C 4,2 C 29,0 km/h (5 Bft) 98 %
15.12.2019 11:14 8,7 C 82 % 1000,2 hPa 0,0 l/m 2 min 0 min 0,000 mm 1,0 UV-I 268 W/m 5,8 C 4,4 C 22,5 km/h (4 Bft) 91 %
15.12.2019 11:12 8,7 C 81 % 1000,2 hPa 0,0 l/m 2 min 0 min 0,000 mm 1,0 UV-I 269 W/m 5,6 C 2,5 C 33,8 km/h (5 Bft) 96 %
15.12.2019 11:10 8,7 C 82 % 1000,2 hPa 0,0 l/m 2 min 0 min 0,000 mm 1,0 UV-I 235 W/m 5,8 C 6,1 C 25,7 km/h (4 Bft) 96 %
15.12.2019 11:08 8,7 C 82 % 1000,2 hPa 0,0 l/m 2 min 0 min 0,000 mm 0,9 UV-I 191 W/m 5,8 C 3,7 C 22,5 km/h (4 Bft) 96 %
15.12.2019 11:06 8,7 C 82 % 1000,1 hPa 0,0 l/m 2 min 0 min 0,000 mm 0,9 UV-I 180 W/m 5,8 C 7,9 C 20,9 km/h (4 Bft) 98 %
15.12.2019 11:04 8,7 C 82 % 1000,1 hPa 0,0 l/m 2 min 0 min 0,102 mm 0,9 UV-I 237 W/m 5,8 C 7,1 C 27,4 km/h (4 Bft) 97 %
15.12.2019 11:00 8,6 C 82 % 1000,1 hPa 0,0 l/m 2 min 0 min 0,000 mm 0,9 UV-I 222 W/m 5,7 C 8,6 C 11,3 km/h (2 Bft) 98 %
15.12.2019 10:58 8,6 C 82 % 1000,0 hPa 0,0 l/m 2 min 0 min 0,000 mm 0,9 UV-I 152 W/m 5,7 C 5,1 C 20,9 km/h (4 Bft) 96 %
15.12.2019 10:56 8,7 C 82 % 1000,0 hPa 0,0 l/m 2 min 0 min 0,000 mm 0,9 UV-I 200 W/m 5,8 C 6,1 C 30,6 km/h (5 Bft) 98 %
15.12.2019 10:54 8,7 C 82 % 1000,0 hPa 0,0 l/m 2 min 0 min 0,000 mm 0,9 UV-I 226 W/m 5,8 C 5,9 C 17,7 km/h (3 Bft) 98 %
15.12.2019 10:52 8,7 C 82 % 999,9 hPa 0,0 l/m 2 min 0 min 0,000 mm 0,9 UV-I 209 W/m 5,8 C 4,2 C 24,1 km/h (4 Bft) 96 %
15.12.2019 10:50 8,7 C 82 % 999,9 hPa 0,0 l/m 2 min 0 min 0,000 mm 0,9 UV-I 172 W/m 5,8 C 5,1 C 19,3 km/h (3 Bft) 98 %
15.12.2019 10:48 8,7 C 82 % 999,8 hPa 0,0 l/m 2 min 0 min 0,000 mm 0,9 UV-I 163 W/m 5,8 C 4,1 C 30,6 km/h (5 Bft) 100 %
15.12.2019 10:46 8,7 C 83 % 999,8 hPa 0,0 l/m 2 min 0 min 0,000 mm 0,9 UV-I 217 W/m 6,0 C 4,8 C 24,1 km/h (4 Bft) 98 %
15.12.2019 10:44 8,7 C 83 % 999,7 hPa 0,0 l/m 2 min 0 min 0,000 mm 0,9 UV-I 228 W/m 6,0 C 6,3 C 17,7 km/h (3 Bft) 100 %
15.12.2019 10:42 8,6 C 83 % 999,7 hPa 0,0 l/m 2 min 0 min 0,000 mm 0,9 UV-I 231 W/m 5,9 C 5,6 C 19,3 km/h (3 Bft) 98 %
15.12.2019 10:40 8,6 C 83 % 999,7 hPa 0,0 l/m 2 min 0 min 0,000 mm 0,9 UV-I 229 W/m 5,9 C 5,3 C 25,7 km/h (4 Bft) 100 %
15.12.2019 10:38 8,6 C 83 % 999,7 hPa 0,0 l/m 2 min 0 min 0,000 mm 0,9 UV-I 223 W/m 5,9 C 7,2 C 17,7 km/h (3 Bft) 100 %
15.12.2019 10:36 8,6 C 83 % 999,7 hPa 0,0 l/m 2 min 0 min 0,000 mm 0,9 UV-I 217 W/m 5,9 C 2,1 C 37,0 km/h (5 Bft) 100 %
15.12.2019 10:34 8,6 C 83 % 999,6 hPa 0,0 l/m 2 min 0 min 0,000 mm 0,9 UV-I 213 W/m 5,9 C 4,1 C 25,7 km/h (4 Bft) 96 %
15.12.2019 10:32 8,5 C 83 % 999,6 hPa 0,0 l/m 2 min 0 min 0,000 mm 0,8 UV-I 208 W/m 5,8 C 5,2 C 25,7 km/h (4 Bft) 94 %
15.12.2019 10:30 8,5 C 83 % 999,6 hPa 0,0 l/m 2 min 0 min 0,000 mm 0,8 UV-I 203 W/m 5,8 C 5,0 C 25,7 km/h (4 Bft) 96 %
15.12.2019 10:28 8,4 C 83 % 999,5 hPa 0,0 l/m 2 min 0 min 0,000 mm 0,8 UV-I 195 W/m 5,7 C 6,4 C 17,7 km/h (3 Bft) 100 %
15.12.2019 10:26 8,4 C 83 % 999,4 hPa 0,0 l/m 2 min 0 min 0,000 mm 0,8 UV-I 186 W/m 5,7 C 5,7 C 17,7 km/h (3 Bft) 98 %
15.12.2019 10:24 8,4 C 83 % 999,2 hPa 0,0 l/m 2 min 0 min 0,000 mm 0,8 UV-I 188 W/m 5,7 C 5,5 C 20,9 km/h (4 Bft) 94 %
15.12.2019 10:22 8,3 C 83 % 999,3 hPa 0,0 l/m 2 min 0 min 0,000 mm 0,8 UV-I 187 W/m 5,6 C 2,7 C 25,7 km/h (4 Bft) 98 %
15.12.2019 10:20 8,3 C 84 % 999,3 hPa 0,0 l/m 2 min 0 min 0,000 mm 0,8 UV-I 182 W/m 5,8 C 5,8 C 22,5 km/h (4 Bft) 96 %
15.12.2019 10:18 8,3 C 84 % 999,1 hPa 0,0 l/m 2 min 0 min 0,000 mm 0,8 UV-I 177 W/m 5,8 C 4,7 C 22,5 km/h (4 Bft) 98 %
15.12.2019 10:16 8,3 C 84 % 999,2 hPa 0,0 l/m 2 min 0 min 0,000 mm 0,8 UV-I 169 W/m 5,8 C 5,9 C 20,9 km/h (4 Bft) 94 %
15.12.2019 10:14 8,2 C 84 % 999,1 hPa 0,0 l/m 2 min 0 min 0,000 mm 0,8 UV-I 168 W/m 5,7 C 2,9 C 29,0 km/h (5 Bft) 98 %
15.12.2019 10:12 8,2 C 84 % 999,2 hPa 0,0 l/m 2 min 0 min 0,000 mm 0,8 UV-I 163 W/m 5,7 C 2,9 C 24,1 km/h (4 Bft) 96 %
15.12.2019 10:10 8,2 C 84 % 999,1 hPa 0,0 l/m 2 min 0 min 0,000 mm 0,8 UV-I 159 W/m 5,7 C 3,8 C 32,2 km/h (5 Bft) 94 %
15.12.2019 10:08 8,2 C 85 % 999,0 hPa 0,0 l/m 2 min 0 min 0,000 mm 0,8 UV-I 154 W/m 5,8 C 4,7 C 24,1 km/h (4 Bft) 96 %
15.12.2019 10:06 8,2 C 85 % 999,0 hPa 0,0 l/m 2 min 0 min 0,000 mm 0,8 UV-I 150 W/m 5,8 C 4,6 C 24,1 km/h (4 Bft) 95 %
15.12.2019 10:04 8,1 C 85 % 998,9 hPa 0,0 l/m 2 min 0 min 0,050 mm 0,7 UV-I 145 W/m 5,7 C 4,3 C 29,0 km/h (5 Bft) 98 %
15.12.2019 10:00 8,1 C 85 % 998,8 hPa 0,0 l/m 2 min 0 min 0,000 mm 0,7 UV-I 140 W/m 5,7 C 3,7 C 29,0 km/h (5 Bft) 100 %
15.12.2019 09:58 8,1 C 85 % 998,7 hPa 0,0 l/m 2 min 0 min 0,000 mm 0,7 UV-I 136 W/m 5,7 C 1,6 C 32,2 km/h (5 Bft) 98 %
15.12.2019 09:56 8,1 C 86 % 998,6 hPa 0,0 l/m 2 min 0 min 0,000 mm 0,7 UV-I 132 W/m 5,9 C 5,6 C 17,7 km/h (3 Bft) 100 %
15.12.2019 09:54 8,0 C 86 % 998,6 hPa 0,0 l/m 2 min 0 min 0,000 mm 0,7 UV-I 126 W/m 5,8 C 4,4 C 25,7 km/h (4 Bft) 96 %
15.12.2019 09:52 7,9 C 86 % 998,6 hPa 0,0 l/m 2 min 0 min 0,000 mm 0,7 UV-I 123 W/m 5,7 C 3,3 C 25,7 km/h (4 Bft) 98 %
15.12.2019 09:50 7,9 C 86 % 998,6 hPa 0,0 l/m 2 min 0 min 0,000 mm 0,7 UV-I 119 W/m 5,7 C 6,9 C 14,5 km/h (3 Bft) 96 %
15.12.2019 09:48 7,9 C 86 % 998,5 hPa 0,0 l/m 2 min 0 min 0,000 mm 0,7 UV-I 102 W/m 5,7 C 4,5 C 30,6 km/h (5 Bft) 96 %
15.12.2019 09:46 7,9 C 86 % 998,4 hPa 0,0 l/m 2 min 0 min 0,000 mm 0,7 UV-I 109 W/m 5,7 C 3,3 C 24,1 km/h (4 Bft) 96 %
15.12.2019 09:44 7,8 C 86 % 998,4 hPa 0,0 l/m 2 min 0 min 0,000 mm 0,7 UV-I 105 W/m 5,6 C 5,2 C 19,3 km/h (3 Bft) 96 %
15.12.2019 09:42 7,8 C 86 % 998,3 hPa 0,0 l/m 2 min 0 min 0,000 mm 0,7 UV-I 85 W/m 5,6 C 3,1 C 24,1 km/h (4 Bft) 96 %
15.12.2019 09:40 7,8 C 86 % 998,2 hPa 0,0 l/m 0 min 0 min 0,000 mm 0,0 UV-I 34 W/m 5,6 C 4,0 C 24,1 km/h (4 Bft) 96 %
15.12.2019 09:38 7,8 C 86 % 998,2 hPa 0,0 l/m 0 min 0 min 0,000 mm 0,0 UV-I 30 W/m 5,6 C 2,9 C 25,7 km/h (4 Bft) 96 %
15.12.2019 09:36 7,9 C 86 % 998,2 hPa 0,0 l/m 0 min 0 min 0,000 mm 0,0 UV-I 28 W/m 5,7 C 3,6 C 22,5 km/h (4 Bft) 98 %
15.12.2019 09:34 7,9 C 86 % 998,2 hPa 0,0 l/m 0 min 0 min 0,000 mm 0,0 UV-I 27 W/m 5,7 C 1,9 C 25,7 km/h (4 Bft) 93 %
15.12.2019 09:32 7,9 C 86 % 998,1 hPa 0,0 l/m 0 min 0 min 0,000 mm 0,0 UV-I 27 W/m 5,7 C 2,6 C 27,4 km/h (4 Bft) 96 %
15.12.2019 09:30 7,9 C 87 % 998,2 hPa 0,0 l/m 0 min 0 min 0,000 mm 0,0 UV-I 26 W/m 5,9 C 3,1 C 20,9 km/h (4 Bft) 96 %
15.12.2019 09:28 7,9 C 87 % 998,2 hPa 0,0 l/m 0 min 0 min 0,000 mm 0,0 UV-I 26 W/m 5,9 C 3,3 C 29,0 km/h (5 Bft) 94 %
15.12.2019 09:26 7,8 C 87 % 998,1 hPa 0,0 l/m 0 min 0 min 0,000 mm 0,0 UV-I 26 W/m 5,8 C 2,6 C 25,7 km/h (4 Bft) 94 %
15.12.2019 09:24 7,8 C 87 % 998,2 hPa 0,0 l/m 0 min 0 min 0,000 mm 0,0 UV-I 25 W/m 5,8 C 4,7 C 22,5 km/h (4 Bft) 94 %
15.12.2019 09:22 7,8 C 87 % 998,1 hPa 0,0 l/m 0 min 0 min 0,000 mm 0,0 UV-I 24 W/m 5,8 C 3,0 C 25,7 km/h (4 Bft) 93 %
15.12.2019 09:20 7,8 C 87 % 998,0 hPa 0,0 l/m 0 min 0 min 0,000 mm 0,0 UV-I 23 W/m 5,8 C 3,1 C 25,7 km/h (4 Bft) 94 %
15.12.2019 09:18 7,8 C 87 % 998,0 hPa 0,0 l/m 0 min 0 min 0,000 mm 0,0 UV-I 21 W/m 5,8 C 5,2 C 24,1 km/h (4 Bft) 96 %
15.12.2019 09:16 7,8 C 87 % 997,8 hPa 0,0 l/m 0 min 0 min 0,000 mm 0,0 UV-I 23 W/m 5,8 C 4,9 C 20,9 km/h (4 Bft) 96 %
15.12.2019 09:14 7,8 C 88 % 997,7 hPa 0,0 l/m 0 min 0 min 0,000 mm 0,0 UV-I 21 W/m 5,9 C 4,3 C 27,4 km/h (4 Bft) 96 %
15.12.2019 09:12 7,8 C 88 % 997,7 hPa 0,0 l/m 0 min 0 min 0,000 mm 0,0 UV-I 19 W/m 5,9 C 3,8 C 22,5 km/h (4 Bft) 91 %
15.12.2019 09:10 7,8 C 88 % 997,5 hPa 0,0 l/m 0 min 0 min 0,000 mm 0,0 UV-I 18 W/m 5,9 C 2,5 C 24,1 km/h (4 Bft) 91 %
15.12.2019 09:08 7,8 C 88 % 997,6 hPa 0,0 l/m 0 min 0 min 0,000 mm 0,0 UV-I 16 W/m 5,9 C 1,8 C 29,0 km/h (5 Bft) 89 %
15.12.2019 09:06 7,8 C 88 % 997,5 hPa 0,0 l/m 0 min 0 min 0,000 mm 0,0 UV-I 16 W/m 5,9 C 6,1 C 24,1 km/h (4 Bft) 93 %
15.12.2019 09:04 7,8 C 88 % 997,5 hPa 0,0 l/m 0 min 0 min 0,026 mm 0,0 UV-I 17 W/m 5,9 C 3,8 C 32,2 km/h (5 Bft) 96 %
15.12.2019 09:00 7,8 C 89 % 997,5 hPa 0,0 l/m 0 min 0 min 0,000 mm 0,0 UV-I 17 W/m 6,1 C 6,2 C 19,3 km/h (3 Bft) 94 %
15.12.2019 08:58 7,8 C 89 % 997,4 hPa 0,0 l/m 0 min 0 min 0,000 mm 0,0 UV-I 16 W/m 6,1 C 1,9 C 22,5 km/h (4 Bft) 93 %
15.12.2019 08:56 7,8 C 89 % 997,3 hPa 0,0 l/m 0 min 0 min 0,000 mm 0,0 UV-I 14 W/m 6,1 C 4,6 C 19,3 km/h (3 Bft) 91 %
15.12.2019 08:54 7,8 C 89 % 997,2 hPa 0,0 l/m 0 min 0 min 0,000 mm 0,0 UV-I 13 W/m 6,1 C 2,5 C 29,0 km/h (5 Bft) 96 %
15.12.2019 08:52 7,8 C 89 % 997,0 hPa 0,0 l/m 0 min 0 min 0,000 mm 0,0 UV-I 12 W/m 6,1 C 3,1 C 22,5 km/h (4 Bft) 96 %
15.12.2019 08:50 7,8 C 90 % 997,0 hPa 0,0 l/m 0 min 0 min 0,000 mm 0,0 UV-I 11 W/m 6,3 C 3,4 C 22,5 km/h (4 Bft) 96 %
15.12.2019 08:48 7,9 C 90 % 997,1 hPa 0,0 l/m 0 min 2 min 0,000 mm 0,0 UV-I 11 W/m 6,4 C 3,2 C 25,7 km/h (4 Bft) 96 %
15.12.2019 08:46 7,9 C 90 % 997,0 hPa 0,0 l/m 0 min 2 min 0,000 mm 0,0 UV-I 10 W/m 6,4 C 6,1 C 16,1 km/h (3 Bft) 96 %
15.12.2019 08:44 7,9 C 90 % 997,1 hPa 0,0 l/m 0 min 2 min 0,000 mm 0,0 UV-I 9 W/m 6,4 C 4,4 C 19,3 km/h (3 Bft) 96 %
15.12.2019 08:42 7,9 C 90 % 997,0 hPa 0,0 l/m 0 min 0 min 0,000 mm 0,0 UV-I 8 W/m 6,4 C 3,9 C 25,7 km/h (4 Bft) 94 %
15.12.2019 08:40 8,0 C 91 % 996,9 hPa 0,0 l/m 0 min 0 min 0,000 mm 0,0 UV-I 7 W/m 6,6 C 5,1 C 19,3 km/h (3 Bft) 96 %
15.12.2019 08:38 8,0 C 91 % 996,9 hPa 0,0 l/m 0 min 0 min 0,000 mm 0,0 UV-I 6 W/m 6,6 C 3,3 C 30,6 km/h (5 Bft) 98 %
15.12.2019 08:36 8,0 C 91 % 996,8 hPa 0,0 l/m 0 min 0 min 0,000 mm 0,0 UV-I 6 W/m 6,6 C 1,6 C 37,0 km/h (5 Bft) 100 %
15.12.2019 08:34 8,0 C 91 % 996,8 hPa 0,0 l/m 0 min 0 min 0,000 mm 0,0 UV-I 4 W/m 6,6 C 4,3 C 20,9 km/h (4 Bft) 100 %
15.12.2019 08:32 8,1 C 91 % 996,7 hPa 0,0 l/m 0 min 0 min 0,000 mm 0,0 UV-I 4 W/m 6,7 C 4,3 C 22,5 km/h (4 Bft) 100 %
15.12.2019 08:30 8,1 C 91 % 996,7 hPa 0,0 l/m 0 min 2 min 0,000 mm 0,0 UV-I 2 W/m 6,7 C 3,1 C 33,8 km/h (5 Bft) 96 %
15.12.2019 08:28 8,1 C 92 % 996,6 hPa 0,0 l/m 0 min 0 min 0,000 mm 0,0 UV-I 2 W/m 6,9 C 6,3 C 19,3 km/h (3 Bft) 100 %
15.12.2019 08:26 8,1 C 92 % 996,7 hPa 0,0 l/m 0 min 0 min 0,000 mm 0,0 UV-I 0 W/m 6,9 C 5,4 C 19,3 km/h (3 Bft) 98 %
15.12.2019 08:24 8,1 C 92 % 996,7 hPa 0,0 l/m 0 min 0 min 0,000 mm 0,0 UV-I 0 W/m 6,9 C 3,7 C 30,6 km/h (5 Bft) 98 %
15.12.2019 08:22 8,2 C 92 % 996,6 hPa 0,0 l/m 0 min 0 min 0,000 mm 0,0 UV-I 0 W/m 7,0 C 4,3 C 27,4 km/h (4 Bft) 100 %
15.12.2019 08:20 8,2 C 92 % 996,6 hPa 0,0 l/m 0 min 0 min 0,000 mm 0,0 UV-I 0 W/m 7,0 C 5,9 C 25,7 km/h (4 Bft) 98 %
15.12.2019 08:18 8,2 C 92 % 996,5 hPa 0,0 l/m 0 min 0 min 0,000 mm 0,0 UV-I 0 W/m 7,0 C 4,3 C 22,5 km/h (4 Bft) 100 %
15.12.2019 08:16 8,2 C 92 % 996,5 hPa 0,0 l/m 0 min 0 min 0,000 mm 0,0 UV-I 0 W/m 7,0 C 4,0 C 17,7 km/h (3 Bft) 100 %
15.12.2019 08:14 8,2 C 92 % 996,4 hPa 0,0 l/m 0 min 0 min 0,000 mm 0,0 UV-I 0 W/m 7,0 C 7,1 C 16,1 km/h (3 Bft) 100 %
15.12.2019 08:12 8,2 C 92 % 996,1 hPa 0,0 l/m 0 min 0 min 0,000 mm 0,0 UV-I 0 W/m 7,0 C 3,9 C 25,7 km/h (4 Bft) 100 %
15.12.2019 08:10 8,2 C 92 % 996,1 hPa 0,0 l/m 0 min 0 min 0,000 mm 0,0 UV-I 0 W/m 7,0 C 4,3 C 19,3 km/h (3 Bft) 98 %
15.12.2019 08:08 8,3 C 92 % 996,0 hPa 0,0 l/m 0 min 0 min 0,000 mm 0,0 UV-I 0 W/m 7,1 C 3,6 C 24,1 km/h (4 Bft) 98 %
15.12.2019 08:06 8,3 C 92 % 995,8 hPa 0,0 l/m 0 min 0 min 0,000 mm 0,0 UV-I 0 W/m 7,1 C 4,9 C 22,5 km/h (4 Bft) 100 %
15.12.2019 08:04 8,3 C 92 % 995,8 hPa 0,0 l/m 0 min 0 min 0,025 mm 0,0 UV-I 0 W/m 7,1 C 2,6 C 37,0 km/h (5 Bft) 98 %
15.12.2019 08:00 8,3 C 92 % 995,7 hPa 0,0 l/m 0 min 0 min 0,000 mm 0,0 UV-I 0 W/m 7,1 C 2,3 C 22,5 km/h (4 Bft) 100 %
_ Min-Zeit 21:32 13:36 08:00 - - - - - - 21:24 18:10 02:46 09:08
Minimum _ 4,9 C 74 % 995,7 hPa - - - - - - 2,4 C 0,1 C 4,8 km/h (1 Bft) 89 %
_ Max-Zeit 13:30 00:06 21:38 08:00 09:42 08:30 12:04 11:50 11:56 08:00 11:44 14:58 08:00
Maximum _ 9,5 C 93 % 1006,6 hPa 0,0 l/m 2 min 2 min 0,127 mm 1,1 UV-I 319 W/m 7,1 C 8,8 C 38,6 km/h
S-SW (5 Bft)
100 %
Durchschnitt _ 7,5 C 85 % 1003,1 hPa #0,0 l/m #0 min. #2 min. #0,152 mm 0,0 UV-I 0 W/m 5,1 C 4,5 C 18,0 km/h (3 Bft) 97 %